﻿<?xml version="1.0" encoding="utf-8"?><gpx creator="Garmin Desktop App" version="1.1" xsi:schemaLocation="http://www.topografix.com/GPX/1/1 http://www.topografix.com/GPX/1/1/gpx.xsd http://www.garmin.com/xmlschemas/WaypointExtension/v1 http://www8.garmin.com/xmlschemas/WaypointExtensionv1.xsd http://www.garmin.com/xmlschemas/TrackPointExtension/v1 http://www.garmin.com/xmlschemas/TrackPointExtensionv1.xsd http://www.garmin.com/xmlschemas/GpxExtensions/v3 http://www8.garmin.com/xmlschemas/GpxExtensionsv3.xsd http://www.garmin.com/xmlschemas/ActivityExtension/v1 http://www8.garmin.com/xmlschemas/ActivityExtensionv1.xsd http://www.garmin.com/xmlschemas/AdventuresExtensions/v1 http://www8.garmin.com/xmlschemas/AdventuresExtensionv1.xsd http://www.garmin.com/xmlschemas/PressureExtension/v1 http://www.garmin.com/xmlschemas/PressureExtensionv1.xsd http://www.garmin.com/xmlschemas/TripExtensions/v1 http://www.garmin.com/xmlschemas/TripExtensionsv1.xsd http://www.garmin.com/xmlschemas/TripMetaDataExtensions/v1 http://www.garmin.com/xmlschemas/TripMetaDataExtensionsv1.xsd http://www.garmin.com/xmlschemas/ViaPointTransportationModeExtensions/v1 http://www.garmin.com/xmlschemas/ViaPointTransportationModeExtensionsv1.xsd http://www.garmin.com/xmlschemas/CreationTimeExtension/v1 http://www.garmin.com/xmlschemas/CreationTimeExtensionsv1.xsd http://www.garmin.com/xmlschemas/AccelerationExtension/v1 http://www.garmin.com/xmlschemas/AccelerationExtensionv1.xsd http://www.garmin.com/xmlschemas/PowerExtension/v1 http://www.garmin.com/xmlschemas/PowerExtensionv1.xsd http://www.garmin.com/xmlschemas/VideoExtension/v1 http://www.garmin.com/xmlschemas/VideoExtensionv1.xsd" xmlns="http://www.topografix.com/GPX/1/1" xmlns:xsi="http://www.w3.org/2001/XMLSchema-instance" xmlns:wptx1="http://www.garmin.com/xmlschemas/WaypointExtension/v1" xmlns:gpxtrx="http://www.garmin.com/xmlschemas/GpxExtensions/v3" xmlns:gpxtpx="http://www.garmin.com/xmlschemas/TrackPointExtension/v1" xmlns:gpxx="http://www.garmin.com/xmlschemas/GpxExtensions/v3" xmlns:trp="http://www.garmin.com/xmlschemas/TripExtensions/v1" xmlns:adv="http://www.garmin.com/xmlschemas/AdventuresExtensions/v1" xmlns:prs="http://www.garmin.com/xmlschemas/PressureExtension/v1" xmlns:tmd="http://www.garmin.com/xmlschemas/TripMetaDataExtensions/v1" xmlns:vptm="http://www.garmin.com/xmlschemas/ViaPointTransportationModeExtensions/v1" xmlns:ctx="http://www.garmin.com/xmlschemas/CreationTimeExtension/v1" xmlns:gpxacc="http://www.garmin.com/xmlschemas/AccelerationExtension/v1" xmlns:gpxpx="http://www.garmin.com/xmlschemas/PowerExtension/v1" xmlns:vidx1="http://www.garmin.com/xmlschemas/VideoExtension/v1">

  <metadata>
    <link href="http://www.garmin.com">
      <text>Garmin International</text>
    </link>
    <time>2015-09-01T17:27:20Z</time>
    <bounds maxlat="50.317535782232881" maxlon="7.487949561327696" minlat="49.75839838385582" minlon="6.629343777894974" />
  </metadata>

  <trk>
    <name>4-Mosel-ab Koblz-Kobern-Cochem über Bengel bis Trier</name>
    <extensions>
      <gpxx:TrackExtension>
        <gpxx:DisplayColor>DarkRed</gpxx:DisplayColor>
      </gpxx:TrackExtension>
    </extensions>
    <trkseg>
      <trkpt lat="50.30384486541152" lon="7.485588379204273">
        <ele>210.19999999999999</ele>
        <time>2014-05-17T21:35:21Z</time>
      </trkpt>
      <trkpt lat="50.303167439997196" lon="7.485984675586224">
        <ele>211.40000000000001</ele>
        <time>2014-05-17T21:35:20Z</time>
      </trkpt>
      <trkpt lat="50.30252069234848" lon="7.48648826032877">
        <ele>211.5</ele>
        <time>2014-05-17T21:35:20Z</time>
      </trkpt>
      <trkpt lat="50.301600778475404" lon="7.487234668806195">
        <ele>211.80000000000001</ele>
        <time>2014-05-17T21:35:20Z</time>
      </trkpt>
      <trkpt lat="50.30053686350584" lon="7.487686034291983">
        <ele>212.19999999999999</ele>
        <time>2014-05-17T21:35:19Z</time>
      </trkpt>
      <trkpt lat="50.299787437543273" lon="7.486695628613234">
        <ele>214</ele>
        <time>2014-05-17T21:35:19Z</time>
      </trkpt>
      <trkpt lat="50.298870038241148" lon="7.484530415385962">
        <ele>214.90000000000001</ele>
        <time>2014-05-17T21:35:19Z</time>
      </trkpt>
      <trkpt lat="50.297917518764734" lon="7.481234734877944">
        <ele>214.19999999999999</ele>
        <time>2014-05-17T21:35:18Z</time>
      </trkpt>
      <trkpt lat="50.297273369506001" lon="7.476361831650138">
        <ele>210</ele>
        <time>2014-05-17T21:35:18Z</time>
      </trkpt>
      <trkpt lat="50.297437068074942" lon="7.474236516281962">
        <ele>206.5</ele>
        <time>2014-05-17T21:35:18Z</time>
      </trkpt>
      <trkpt lat="50.297902431339025" lon="7.472207676619291">
        <ele>203.80000000000001</ele>
        <time>2014-05-17T21:35:18Z</time>
      </trkpt>
      <trkpt lat="50.298734335228801" lon="7.47028092853725">
        <ele>201.30000000000001</ele>
        <time>2014-05-17T21:35:18Z</time>
      </trkpt>
      <trkpt lat="50.299545703455806" lon="7.469105115160346">
        <ele>195.5</ele>
        <time>2014-05-17T21:35:17Z</time>
      </trkpt>
      <trkpt lat="50.301192412152886" lon="7.46748841367662">
        <ele>190.40000000000001</ele>
        <time>2014-05-17T21:35:17Z</time>
      </trkpt>
      <trkpt lat="50.303205829113722" lon="7.466397508978844">
        <ele>165.5</ele>
        <time>2014-05-17T21:35:17Z</time>
      </trkpt>
      <trkpt lat="50.30471071600914" lon="7.466279407963157">
        <ele>163.40000000000001</ele>
        <time>2014-05-17T21:35:17Z</time>
      </trkpt>
      <trkpt lat="50.306455492973328" lon="7.466536983847618">
        <ele>152.69999999999999</ele>
        <time>2014-05-17T21:35:16Z</time>
      </trkpt>
      <trkpt lat="50.309482533484697" lon="7.467180714011192">
        <ele>137</ele>
        <time>2014-05-17T21:35:16Z</time>
      </trkpt>
      <trkpt lat="50.310563212260604" lon="7.467946736142039">
        <ele>133.40000000000001</ele>
        <time>2014-05-17T21:35:26Z</time>
      </trkpt>
      <trkpt lat="50.312271025031805" lon="7.470285035669804">
        <ele>136.30000000000001</ele>
        <time>2014-05-17T21:35:26Z</time>
      </trkpt>
      <trkpt lat="50.313226981088519" lon="7.47194959782064">
        <ele>133.40000000000001</ele>
        <time>2014-05-17T21:35:26Z</time>
      </trkpt>
      <trkpt lat="50.313762500882149" lon="7.473134212195873">
        <ele>131.30000000000001</ele>
        <time>2014-05-17T21:35:26Z</time>
      </trkpt>
      <trkpt lat="50.315289264544845" lon="7.478301320225">
        <ele>117.5</ele>
        <time>2014-05-17T21:35:26Z</time>
      </trkpt>
      <trkpt lat="50.315637700259686" lon="7.483253767713904">
        <ele>107.40000000000001</ele>
        <time>2014-05-17T21:35:26Z</time>
      </trkpt>
      <trkpt lat="50.314912665635347" lon="7.487949561327696">
        <ele>90.400000000000006</ele>
        <time>2014-05-17T21:35:26Z</time>
      </trkpt>
      <trkpt lat="50.31537551432848" lon="7.487834813073278">
        <ele>86.599999999999994</ele>
        <time>2014-05-17T21:35:26Z</time>
      </trkpt>
      <trkpt lat="50.316172298043966" lon="7.485434822738171">
        <ele>88.200000000000003</ele>
        <time>2014-05-17T21:35:26Z</time>
      </trkpt>
      <trkpt lat="50.316517967730761" lon="7.483508577570319">
        <ele>87.099999999999994</ele>
        <time>2014-05-17T21:35:26Z</time>
      </trkpt>
      <trkpt lat="50.316983163356781" lon="7.481187712401152">
        <ele>84.299999999999997</ele>
        <time>2014-05-17T21:35:26Z</time>
      </trkpt>
      <trkpt lat="50.317034041509032" lon="7.479861862957478">
        <ele>84.200000000000003</ele>
        <time>2014-05-17T21:35:26Z</time>
      </trkpt>
      <trkpt lat="50.31666012480855" lon="7.47746329754591">
        <ele>83.700000000000003</ele>
        <time>2014-05-17T21:35:26Z</time>
      </trkpt>
      <trkpt lat="50.316288974136114" lon="7.475589606910944">
        <ele>91.900000000000006</ele>
        <time>2014-05-17T21:35:26Z</time>
      </trkpt>
      <trkpt lat="50.316041205078363" lon="7.473522713407874">
        <ele>88.599999999999994</ele>
        <time>2014-05-17T21:35:26Z</time>
      </trkpt>
      <trkpt lat="50.317535782232881" lon="7.471851278096438">
        <ele>73.799999999999997</ele>
        <time>2014-05-17T21:35:25Z</time>
      </trkpt>
      <trkpt lat="50.315933916717768" lon="7.468849467113614">
        <ele>74.799999999999997</ele>
        <time>2014-05-17T21:35:25Z</time>
      </trkpt>
      <trkpt lat="50.314262397587299" lon="7.466602362692356">
        <ele>73.700000000000003</ele>
        <time>2014-05-17T21:35:21Z</time>
      </trkpt>
      <trkpt lat="50.312718031927943" lon="7.465298306196928">
        <ele>77.900000000000006</ele>
        <time>2014-05-17T21:35:18Z</time>
      </trkpt>
      <trkpt lat="50.311420261859894" lon="7.464273199439049">
        <ele>75.299999999999997</ele>
        <time>2014-05-17T21:35:15Z</time>
      </trkpt>
      <trkpt lat="50.30959652736783" lon="7.4639390129596">
        <ele>82.599999999999994</ele>
        <time>2014-05-17T21:35:21Z</time>
      </trkpt>
      <trkpt lat="50.307169714942575" lon="7.463862234726548">
        <ele>82.599999999999994</ele>
        <time>2014-05-17T21:35:26Z</time>
      </trkpt>
      <trkpt lat="50.304701328277588" lon="7.46386181563139">
        <ele>79.799999999999997</ele>
        <time>2014-05-17T21:35:26Z</time>
      </trkpt>
      <trkpt lat="50.300547173246741" lon="7.464655162766576">
        <ele>82.700000000000003</ele>
        <time>2014-05-17T21:35:26Z</time>
      </trkpt>
      <trkpt lat="50.29530068859458" lon="7.464341092854738">
        <ele>74.900000000000006</ele>
        <time>2014-05-17T21:35:26Z</time>
      </trkpt>
      <trkpt lat="50.292478334158659" lon="7.463333671912551">
        <ele>75.599999999999994</ele>
        <time>2014-05-17T21:35:26Z</time>
      </trkpt>
      <trkpt lat="50.290122013539076" lon="7.460995959118009">
        <ele>74.099999999999994</ele>
        <time>2014-05-17T21:35:26Z</time>
      </trkpt>
      <trkpt lat="50.287654465064406" lon="7.458709208294749">
        <ele>73.5</ele>
        <time>2014-05-17T21:35:26Z</time>
      </trkpt>
      <trkpt lat="50.28530040755868" lon="7.457941509783268">
        <ele>72.5</ele>
        <time>2014-05-17T21:35:26Z</time>
      </trkpt>
      <trkpt lat="50.282370513305068" lon="7.45854701846838">
        <ele>83.099999999999994</ele>
        <time>2014-05-17T21:35:26Z</time>
      </trkpt>
      <trkpt lat="50.278643080964684" lon="7.460668813437223">
        <ele>83.599999999999994</ele>
        <time>2014-05-17T21:35:26Z</time>
      </trkpt>
      <trkpt lat="50.274175191298127" lon="7.460816586390138">
        <ele>79.299999999999997</ele>
        <time>2014-05-17T21:35:26Z</time>
      </trkpt>
      <trkpt lat="50.269233640283346" lon="7.457201220095158">
        <ele>98.599999999999994</ele>
        <time>2014-05-17T21:35:26Z</time>
      </trkpt>
      <trkpt lat="50.266073159873486" lon="7.453701021149755">
        <ele>93.200000000000003</ele>
        <time>2014-05-17T21:35:26Z</time>
      </trkpt>
      <trkpt lat="50.262775719165802" lon="7.447797562927008">
        <ele>76.700000000000003</ele>
        <time>2014-05-17T21:35:26Z</time>
      </trkpt>
      <trkpt lat="50.26085190474987" lon="7.444338016211987">
        <ele>77.400000000000006</ele>
        <time>2014-05-17T21:35:26Z</time>
      </trkpt>
      <trkpt lat="50.25876346975565" lon="7.442509084939957">
        <ele>76.099999999999994</ele>
        <time>2014-05-17T21:35:26Z</time>
      </trkpt>
      <trkpt lat="50.25530300103128" lon="7.442938825115562">
        <ele>79.900000000000006</ele>
        <time>2014-05-17T21:35:26Z</time>
      </trkpt>
      <trkpt lat="50.252473605796695" lon="7.444312535226345">
        <ele>85.700000000000003</ele>
        <time>2014-05-17T21:35:26Z</time>
      </trkpt>
      <trkpt lat="50.249504819512367" lon="7.446516221389175">
        <ele>75.799999999999997</ele>
        <time>2014-05-17T21:35:26Z</time>
      </trkpt>
      <trkpt lat="50.245026620104909" lon="7.446016073226929">
        <ele>76.099999999999994</ele>
        <time>2014-05-17T21:35:26Z</time>
      </trkpt>
      <trkpt lat="50.240487987175584" lon="7.444694330915809">
        <ele>74.900000000000006</ele>
        <time>2014-05-17T21:35:26Z</time>
      </trkpt>
      <trkpt lat="50.238924259319901" lon="7.444904381409288">
        <ele>75.700000000000003</ele>
        <time>2014-05-17T21:35:26Z</time>
      </trkpt>
      <trkpt lat="50.236630886793137" lon="7.445787079632282">
        <ele>81.599999999999994</ele>
        <time>2014-05-17T21:35:26Z</time>
      </trkpt>
      <trkpt lat="50.234066024422646" lon="7.447203872725368">
        <ele>91.400000000000006</ele>
        <time>2014-05-17T21:35:26Z</time>
      </trkpt>
      <trkpt lat="50.230327611789107" lon="7.447416102513671">
        <ele>76.700000000000003</ele>
        <time>2014-05-17T21:35:26Z</time>
      </trkpt>
      <trkpt lat="50.227481117472053" lon="7.445439482107759">
        <ele>79.299999999999997</ele>
        <time>2014-05-17T21:35:26Z</time>
      </trkpt>
      <trkpt lat="50.225821416825056" lon="7.442999593913555">
        <ele>75.5</ele>
        <time>2014-05-17T21:35:26Z</time>
      </trkpt>
      <trkpt lat="50.22480527870357" lon="7.438493482768536">
        <ele>77.400000000000006</ele>
        <time>2014-05-17T21:35:26Z</time>
      </trkpt>
      <trkpt lat="50.225299224257469" lon="7.433365182951093">
        <ele>75.799999999999997</ele>
        <time>2014-05-17T21:35:26Z</time>
      </trkpt>
      <trkpt lat="50.225669620558619" lon="7.427657525986433">
        <ele>81.200000000000003</ele>
        <time>2014-05-17T21:35:26Z</time>
      </trkpt>
      <trkpt lat="50.225422186776996" lon="7.421091478317976">
        <ele>90.799999999999997</ele>
        <time>2014-05-17T21:35:26Z</time>
      </trkpt>
      <trkpt lat="50.224680388346314" lon="7.415233701467514">
        <ele>96.599999999999994</ele>
        <time>2014-05-17T21:35:26Z</time>
      </trkpt>
      <trkpt lat="50.22290887311101" lon="7.410641927272081">
        <ele>101.3</ele>
        <time>2014-05-17T21:35:26Z</time>
      </trkpt>
      <trkpt lat="50.220804093405604" lon="7.403421588242054">
        <ele>81.700000000000003</ele>
        <time>2014-05-17T21:35:26Z</time>
      </trkpt>
      <trkpt lat="50.218822779133916" lon="7.397445878013969">
        <ele>80.700000000000003</ele>
        <time>2014-05-17T21:35:26Z</time>
      </trkpt>
      <trkpt lat="50.216910196468234" lon="7.393100867047906">
        <ele>80.299999999999997</ele>
        <time>2014-05-17T21:35:26Z</time>
      </trkpt>
      <trkpt lat="50.214283559471369" lon="7.389700077474117">
        <ele>78.200000000000003</ele>
        <time>2014-05-17T21:35:26Z</time>
      </trkpt>
      <trkpt lat="50.211492301896214" lon="7.387447273358703">
        <ele>78.5</ele>
        <time>2014-05-17T21:35:26Z</time>
      </trkpt>
      <trkpt lat="50.208893241360784" lon="7.385130096226931">
        <ele>79</ele>
        <time>2014-05-17T21:35:26Z</time>
      </trkpt>
      <trkpt lat="50.206088237464428" lon="7.382877208292484">
        <ele>79.200000000000003</ele>
        <time>2014-05-17T21:35:26Z</time>
      </trkpt>
      <trkpt lat="50.202912501990795" lon="7.381010726094246">
        <ele>84.900000000000006</ele>
      </trkpt>
      <trkpt lat="50.200378736481071" lon="7.378823468461633">
        <ele>91.900000000000006</ele>
        <time>2014-05-17T22:01:03Z</time>
      </trkpt>
      <trkpt lat="50.197171987965703" lon="7.376443259418011">
        <ele>95.599999999999994</ele>
        <time>2014-05-17T22:01:03Z</time>
      </trkpt>
      <trkpt lat="50.194322476163507" lon="7.374899899587035">
        <ele>86.299999999999997</ele>
        <time>2014-05-17T22:01:03Z</time>
      </trkpt>
      <trkpt lat="50.191036267206073" lon="7.372443834319711">
        <ele>92.599999999999994</ele>
        <time>2014-05-17T22:01:03Z</time>
      </trkpt>
      <trkpt lat="50.189137598499656" lon="7.371146399527788">
        <ele>93.799999999999997</ele>
        <time>2014-05-17T22:01:03Z</time>
      </trkpt>
      <trkpt lat="50.18666828982532" lon="7.367968400940299">
        <ele>84.900000000000006</ele>
        <time>2014-05-17T22:01:03Z</time>
      </trkpt>
      <trkpt lat="50.184885878115892" lon="7.364082299172878">
        <ele>114.2</ele>
        <time>2014-05-17T22:01:03Z</time>
      </trkpt>
      <trkpt lat="50.184189006686211" lon="7.358908737078309">
        <ele>97</ele>
        <time>2014-05-17T22:01:03Z</time>
      </trkpt>
      <trkpt lat="50.183711824938655" lon="7.352962614968419">
        <ele>96.900000000000006</ele>
        <time>2014-05-17T22:01:03Z</time>
      </trkpt>
      <trkpt lat="50.183046218007803" lon="7.347057228907943">
        <ele>99.299999999999997</ele>
        <time>2014-05-17T22:01:03Z</time>
      </trkpt>
      <trkpt lat="50.181895801797509" lon="7.339780731126666">
        <ele>119.8</ele>
        <time>2014-05-17T22:01:03Z</time>
      </trkpt>
      <trkpt lat="50.181670999154449" lon="7.33458680100739">
        <ele>97.400000000000006</ele>
        <time>2014-05-17T22:01:03Z</time>
      </trkpt>
      <trkpt lat="50.182820241898298" lon="7.328255698084831">
        <ele>99.799999999999997</ele>
        <time>2014-05-17T22:01:03Z</time>
      </trkpt>
      <trkpt lat="50.183782819658518" lon="7.323766434565187">
        <ele>89.799999999999997</ele>
        <time>2014-05-17T22:01:03Z</time>
      </trkpt>
      <trkpt lat="50.184477092698216" lon="7.318367483094335">
        <ele>88.099999999999994</ele>
        <time>2014-05-17T22:01:03Z</time>
      </trkpt>
      <trkpt lat="50.18475922755897" lon="7.315286127850413">
        <ele>87.700000000000003</ele>
        <time>2014-05-17T22:01:03Z</time>
      </trkpt>
      <trkpt lat="50.183502780273557" lon="7.306795008480549">
        <ele>91.5</ele>
        <time>2014-05-17T22:01:03Z</time>
      </trkpt>
      <trkpt lat="50.180854769423604" lon="7.30332188308239">
        <ele>86.299999999999997</ele>
        <time>2014-05-17T22:01:03Z</time>
      </trkpt>
      <trkpt lat="50.178564079105854" lon="7.302187727764249">
        <ele>98</ele>
      </trkpt>
      <trkpt lat="50.176994316279888" lon="7.302199378609657">
        <ele>92.400000000000006</ele>
        <time>2014-05-17T22:02:20Z</time>
      </trkpt>
      <trkpt lat="50.176904127001762" lon="7.301896624267101">
        <ele>87.799999999999997</ele>
        <time>2014-05-17T22:02:20Z</time>
      </trkpt>
      <trkpt lat="50.177339985966682" lon="7.300328873097897">
        <ele>81.299999999999997</ele>
        <time>2014-05-17T22:02:20Z</time>
      </trkpt>
      <trkpt lat="50.177775928750634" lon="7.298761289566755">
        <ele>84.400000000000006</ele>
        <time>2014-05-17T22:02:20Z</time>
      </trkpt>
      <trkpt lat="50.175803164020181" lon="7.297310465946794">
        <ele>89.700000000000003</ele>
        <time>2014-05-17T22:02:20Z</time>
      </trkpt>
      <trkpt lat="50.173349361866713" lon="7.293756790459156">
        <ele>92.799999999999997</ele>
        <time>2014-05-17T22:02:20Z</time>
      </trkpt>
      <trkpt lat="50.172164412215352" lon="7.290066992864013">
        <ele>90.900000000000006</ele>
        <time>2014-05-17T22:02:20Z</time>
      </trkpt>
      <trkpt lat="50.171419093385339" lon="7.286141160875559">
        <ele>90</ele>
        <time>2014-05-17T22:02:20Z</time>
      </trkpt>
      <trkpt lat="50.16992493532598" lon="7.282011564821005">
        <ele>82</ele>
        <time>2014-05-17T22:02:20Z</time>
      </trkpt>
      <trkpt lat="50.169117841869593" lon="7.277431273832917">
        <ele>82.599999999999994</ele>
        <time>2014-05-17T22:02:20Z</time>
      </trkpt>
      <trkpt lat="50.169025389477611" lon="7.271960573270917">
        <ele>84.700000000000003</ele>
        <time>2014-05-17T22:02:20Z</time>
      </trkpt>
      <trkpt lat="50.16893302090466" lon="7.266489788889885">
        <ele>84.900000000000006</ele>
        <time>2014-05-17T22:02:20Z</time>
      </trkpt>
      <trkpt lat="50.16843899153173" lon="7.2548723872751">
        <ele>82.5</ele>
        <time>2014-05-17T22:02:20Z</time>
      </trkpt>
      <trkpt lat="50.169044500216842" lon="7.243512477725744">
        <ele>85.5</ele>
        <time>2014-05-17T22:02:20Z</time>
      </trkpt>
      <trkpt lat="50.168921621516347" lon="7.231916533783078">
        <ele>85.099999999999994</ele>
        <time>2014-05-17T22:02:20Z</time>
      </trkpt>
      <trkpt lat="50.16942361369729" lon="7.225539078935981">
        <ele>88.799999999999997</ele>
        <time>2014-05-17T22:02:20Z</time>
      </trkpt>
      <trkpt lat="50.169155979529023" lon="7.220535082742572">
        <ele>91</ele>
      </trkpt>
      <trkpt lat="50.168294403702021" lon="7.211987720802426">
        <ele>96.200000000000003</ele>
        <time>2014-05-17T22:02:05Z</time>
      </trkpt>
      <trkpt lat="50.164986234158278" lon="7.203869428485632">
        <ele>85.5</ele>
        <time>2014-05-17T22:02:05Z</time>
      </trkpt>
      <trkpt lat="50.161373382434249" lon="7.196140978485346">
        <ele>88.799999999999997</ele>
        <time>2014-05-17T22:02:05Z</time>
      </trkpt>
      <trkpt lat="50.161312781274319" lon="7.189830578863621">
        <ele>93.400000000000006</ele>
        <time>2014-05-17T22:02:05Z</time>
      </trkpt>
      <trkpt lat="50.162104368209839" lon="7.184163993224502">
        <ele>98.200000000000003</ele>
        <time>2014-05-17T22:02:05Z</time>
      </trkpt>
      <trkpt lat="50.162328416481614" lon="7.179769612848759">
        <ele>94.200000000000003</ele>
        <time>2014-05-17T22:02:05Z</time>
      </trkpt>
      <trkpt lat="50.161342704668641" lon="7.17576147057116">
        <ele>101.5</ele>
        <time>2014-05-17T22:02:05Z</time>
      </trkpt>
      <trkpt lat="50.158501071855426" lon="7.171131139621139">
        <ele>93.5</ele>
        <time>2014-05-17T22:02:05Z</time>
      </trkpt>
      <trkpt lat="50.156571725383401" lon="7.169395163655281">
        <ele>90.099999999999994</ele>
        <time>2014-05-17T22:02:05Z</time>
      </trkpt>
      <trkpt lat="50.154339876025915" lon="7.168474830687046">
        <ele>87</ele>
        <time>2014-05-17T22:02:05Z</time>
      </trkpt>
      <trkpt lat="50.146320825442672" lon="7.166998609900475">
        <ele>91.299999999999997</ele>
        <time>2014-05-17T22:02:05Z</time>
      </trkpt>
      <trkpt lat="50.142723815515637" lon="7.168449265882373">
        <ele>105.5</ele>
        <time>2014-05-17T22:02:05Z</time>
      </trkpt>
      <trkpt lat="50.139401815831661" lon="7.172045605257154">
        <ele>89.299999999999997</ele>
        <time>2014-05-17T22:02:05Z</time>
      </trkpt>
      <trkpt lat="50.138348629698157" lon="7.176435962319374">
        <ele>87.599999999999994</ele>
        <time>2014-05-17T22:02:05Z</time>
      </trkpt>
      <trkpt lat="50.138808209449053" lon="7.181985033676028">
        <ele>87.700000000000003</ele>
        <time>2014-05-17T22:02:05Z</time>
      </trkpt>
      <trkpt lat="50.139952590689063" lon="7.18899741768837">
        <ele>87.700000000000003</ele>
        <time>2014-05-17T22:02:05Z</time>
      </trkpt>
      <trkpt lat="50.140464305877686" lon="7.200258420780301">
        <ele>85.299999999999997</ele>
        <time>2014-05-17T22:02:05Z</time>
      </trkpt>
      <trkpt lat="50.140274707227945" lon="7.210897235199809">
        <ele>95.700000000000003</ele>
        <time>2014-05-17T22:02:05Z</time>
      </trkpt>
      <trkpt lat="50.143825616687536" lon="7.220935067161918">
        <ele>90.5</ele>
        <time>2014-05-17T22:02:05Z</time>
      </trkpt>
      <trkpt lat="50.145266214385629" lon="7.226360337808728">
        <ele>87.900000000000006</ele>
        <time>2014-05-17T22:02:05Z</time>
      </trkpt>
      <trkpt lat="50.144369099289179" lon="7.231527864933014">
        <ele>89.700000000000003</ele>
        <time>2014-05-17T22:02:05Z</time>
      </trkpt>
      <trkpt lat="50.141617069020867" lon="7.234347788617015">
        <ele>88</ele>
        <time>2014-05-17T22:02:05Z</time>
      </trkpt>
      <trkpt lat="50.138287441805005" lon="7.23407780751586">
        <ele>95.5</ele>
        <time>2014-05-17T22:02:05Z</time>
      </trkpt>
      <trkpt lat="50.134888915345073" lon="7.230245685204864">
        <ele>101.5</ele>
        <time>2014-05-17T22:02:05Z</time>
      </trkpt>
      <trkpt lat="50.131737990304828" lon="7.225770000368357">
        <ele>95.400000000000006</ele>
        <time>2014-05-17T22:02:05Z</time>
      </trkpt>
      <trkpt lat="50.125295324251056" lon="7.224668366834521">
        <ele>102</ele>
        <time>2014-05-17T22:02:05Z</time>
      </trkpt>
      <trkpt lat="50.119595378637314" lon="7.229317389428616" />
      <trkpt lat="50.113084483891726" lon="7.236424069851637">
        <ele>87.799999999999997</ele>
        <time>2014-05-17T22:04:34Z</time>
      </trkpt>
      <trkpt lat="50.107984934002161" lon="7.231008186936379">
        <ele>88.799999999999997</ele>
        <time>2014-05-17T22:04:34Z</time>
      </trkpt>
      <trkpt lat="50.107233999297023" lon="7.221601093187928">
        <ele>86.5</ele>
        <time>2014-05-17T22:04:34Z</time>
      </trkpt>
      <trkpt lat="50.110682398080826" lon="7.212526593357325">
        <ele>104.59999999999999</ele>
        <time>2014-05-17T22:04:34Z</time>
      </trkpt>
      <trkpt lat="50.113823935389519" lon="7.207989385351539">
        <ele>106.40000000000001</ele>
        <time>2014-05-17T22:04:34Z</time>
      </trkpt>
      <trkpt lat="50.113855618983507" lon="7.203323431313038">
        <ele>96.700000000000003</ele>
        <time>2014-05-17T22:04:34Z</time>
      </trkpt>
      <trkpt lat="50.110238995403051" lon="7.193861603736877">
        <ele>98.299999999999997</ele>
        <time>2014-05-17T22:04:34Z</time>
      </trkpt>
      <trkpt lat="50.105912340804935" lon="7.189602758735418">
        <ele>102.2</ele>
        <time>2014-05-17T22:04:34Z</time>
      </trkpt>
      <trkpt lat="50.102053564041853" lon="7.189935939386487">
        <ele>99.900000000000006</ele>
        <time>2014-05-17T22:04:34Z</time>
      </trkpt>
      <trkpt lat="50.096941189840436" lon="7.192076593637466">
        <ele>103.2</ele>
        <time>2014-05-17T22:04:34Z</time>
      </trkpt>
      <trkpt lat="50.091333193704486" lon="7.197049576789141">
        <ele>105.8</ele>
        <time>2014-05-17T22:04:34Z</time>
      </trkpt>
      <trkpt lat="50.087225893512368" lon="7.201421912759543">
        <ele>100.7</ele>
        <time>2014-05-17T22:04:34Z</time>
      </trkpt>
      <trkpt lat="50.082969227805734" lon="7.200775584205985">
        <ele>96.599999999999994</ele>
        <time>2014-05-17T22:04:34Z</time>
      </trkpt>
      <trkpt lat="50.081301061436534" lon="7.195451566949487">
        <ele>93.400000000000006</ele>
        <time>2014-05-17T22:04:34Z</time>
      </trkpt>
      <trkpt lat="50.083446661010385" lon="7.185940705239773">
        <ele>93.099999999999994</ele>
        <time>2014-05-17T22:04:34Z</time>
      </trkpt>
      <trkpt lat="50.087025398388505" lon="7.176765035837889">
        <ele>99.599999999999994</ele>
        <time>2014-05-17T22:04:34Z</time>
      </trkpt>
      <trkpt lat="50.090604135766625" lon="7.167589282616973">
        <ele>92.5</ele>
        <time>2014-05-17T22:04:34Z</time>
      </trkpt>
      <trkpt lat="50.092708999291062" lon="7.161338478326798">
        <ele>91.799999999999997</ele>
        <time>2014-05-17T22:04:34Z</time>
      </trkpt>
      <trkpt lat="50.095061715692282" lon="7.15560257434845">
        <ele>94.099999999999994</ele>
        <time>2014-05-17T22:04:34Z</time>
      </trkpt>
      <trkpt lat="50.097951292991638" lon="7.147914189845324">
        <ele>92.5</ele>
        <time>2014-05-17T22:04:34Z</time>
      </trkpt>
      <trkpt lat="50.101363901048899" lon="7.140182806178927">
        <ele>92.099999999999994</ele>
        <time>2014-05-17T22:04:34Z</time>
      </trkpt>
      <trkpt lat="50.105077167972922" lon="7.131936019286513">
        <ele>107.3</ele>
        <time>2014-05-17T22:04:34Z</time>
      </trkpt>
      <trkpt lat="50.106162959709764" lon="7.123156310990453">
        <ele>120</ele>
        <time>2014-05-17T22:04:34Z</time>
      </trkpt>
      <trkpt lat="50.104386331513524" lon="7.117595169693232">
        <ele>109.59999999999999</ele>
        <time>2014-05-17T22:04:34Z</time>
      </trkpt>
      <trkpt lat="50.100075518712401" lon="7.119090165942907">
        <ele>96.700000000000003</ele>
        <time>2014-05-17T22:04:34Z</time>
      </trkpt>
      <trkpt lat="50.097741158679128" lon="7.125802980735898">
        <ele>92.599999999999994</ele>
        <time>2014-05-17T22:04:34Z</time>
      </trkpt>
      <trkpt lat="50.095971236005425" lon="7.132708830758929">
        <ele>93</ele>
        <time>2014-05-17T22:04:34Z</time>
      </trkpt>
      <trkpt lat="50.093552805483341" lon="7.135105133056641">
        <ele>101</ele>
        <time>2014-05-17T22:04:34Z</time>
      </trkpt>
      <trkpt lat="50.089840376749635" lon="7.133638886734843">
        <ele>108.2</ele>
        <time>2014-05-17T22:04:34Z</time>
      </trkpt>
      <trkpt lat="50.085708098486066" lon="7.13216207921505">
        <ele>96.700000000000003</ele>
        <time>2014-05-17T22:04:34Z</time>
      </trkpt>
      <trkpt lat="50.08019900880754" lon="7.131028510630131">
        <ele>94.599999999999994</ele>
        <time>2014-05-17T22:04:34Z</time>
      </trkpt>
      <trkpt lat="50.073283687233925" lon="7.129555307328701">
        <ele>96</ele>
        <time>2014-05-17T22:04:34Z</time>
      </trkpt>
      <trkpt lat="50.065597230568528" lon="7.129455478861928">
        <ele>95.599999999999994</ele>
        <time>2014-05-17T22:04:34Z</time>
      </trkpt>
      <trkpt lat="50.060349237173796" lon="7.12854721583426">
        <ele>98</ele>
        <time>2014-05-17T22:04:34Z</time>
      </trkpt>
      <trkpt lat="50.055101159960032" lon="7.127639036625624">
        <ele>99.400000000000006</ele>
        <time>2014-05-17T22:04:34Z</time>
      </trkpt>
      <trkpt lat="50.051515717059374" lon="7.128549227491021">
        <ele>102.09999999999999</ele>
        <time>2014-05-17T22:04:34Z</time>
      </trkpt>
      <trkpt lat="50.048205787315965" lon="7.131605101749301">
        <ele>113.90000000000001</ele>
        <time>2014-05-17T22:04:34Z</time>
      </trkpt>
      <trkpt lat="50.048052817583084" lon="7.132065603509545">
        <time>2014-05-17T22:04:34Z</time>
      </trkpt>
      <trkpt lat="50.048520611599088" lon="7.132875127717853">
        <time>2014-05-17T22:04:34Z</time>
      </trkpt>
      <trkpt lat="50.04898832179606" lon="7.133684735745192">
        <time>2014-05-17T22:04:34Z</time>
      </trkpt>
      <trkpt lat="50.049452595412731" lon="7.134295776486397">
        <time>2014-05-17T22:04:34Z</time>
      </trkpt>
      <trkpt lat="50.049836318939924" lon="7.134687211364508">
        <time>2014-05-17T22:04:34Z</time>
      </trkpt>
      <trkpt lat="50.049986941739917" lon="7.135194065049291">
        <time>2014-05-17T22:04:34Z</time>
      </trkpt>
      <trkpt lat="50.050468565896153" lon="7.135425992310047">
        <time>2014-05-17T22:04:34Z</time>
      </trkpt>
      <trkpt lat="50.051095196977258" lon="7.13558491319418">
        <time>2014-05-17T22:04:34Z</time>
      </trkpt>
      <trkpt lat="50.051498115062714" lon="7.135911136865616">
        <time>2014-05-17T22:04:34Z</time>
      </trkpt>
      <trkpt lat="50.050645507872105" lon="7.136954013258219">
        <time>2014-05-17T22:04:34Z</time>
      </trkpt>
      <trkpt lat="50.049833385273814" lon="7.137904604896903">
        <time>2014-05-17T22:04:34Z</time>
      </trkpt>
      <trkpt lat="50.04911782220006" lon="7.138683535158634">
        <time>2014-05-17T22:04:34Z</time>
      </trkpt>
      <trkpt lat="50.047901021316648" lon="7.140152882784605">
        <time>2014-05-17T22:04:34Z</time>
      </trkpt>
      <trkpt lat="50.046665696427226" lon="7.141971336677671">
        <time>2014-05-17T22:04:34Z</time>
      </trkpt>
      <trkpt lat="50.045471861958504" lon="7.144969794899225">
        <time>2014-05-17T22:04:34Z</time>
      </trkpt>
      <trkpt lat="50.044332509860396" lon="7.149023367092013">
        <time>2014-05-17T22:04:34Z</time>
      </trkpt>
      <trkpt lat="50.04315166734159" lon="7.153098732233048">
        <time>2014-05-17T22:04:34Z</time>
      </trkpt>
      <trkpt lat="50.042191436514258" lon="7.157045183703303">
        <time>2014-05-17T22:04:34Z</time>
      </trkpt>
      <trkpt lat="50.041332207620144" lon="7.16145389713347">
        <time>2014-05-17T22:04:34Z</time>
      </trkpt>
      <trkpt lat="50.040431739762425" lon="7.166484799236059">
        <time>2014-05-17T22:04:34Z</time>
      </trkpt>
      <trkpt lat="50.039891693741083" lon="7.170562762767077">
        <time>2014-05-17T22:04:34Z</time>
      </trkpt>
      <trkpt lat="50.039001535624266" lon="7.172430083155632">
        <time>2014-05-17T22:04:34Z</time>
      </trkpt>
      <trkpt lat="50.03761550411582" lon="7.175370370969176">
        <time>2014-05-17T22:04:34Z</time>
      </trkpt>
      <trkpt lat="50.035966113209724" lon="7.177163092419505">
        <time>2014-05-17T22:04:34Z</time>
      </trkpt>
      <trkpt lat="50.035072518512607" lon="7.177952164784074">
        <time>2014-05-17T22:04:34Z</time>
      </trkpt>
      <trkpt lat="50.03408077172935" lon="7.178524984046817">
        <time>2014-05-17T22:04:34Z</time>
      </trkpt>
      <trkpt lat="50.032950891181827" lon="7.179149268195033">
        <time>2014-05-17T22:04:34Z</time>
      </trkpt>
      <trkpt lat="50.03181061707437" lon="7.179816635325551">
        <time>2014-05-17T22:04:34Z</time>
      </trkpt>
      <trkpt lat="50.030765561386943" lon="7.180147971957922">
        <time>2014-05-17T22:04:34Z</time>
      </trkpt>
      <trkpt lat="50.029910020530224" lon="7.180382832884789">
        <time>2014-05-17T22:04:34Z</time>
      </trkpt>
      <trkpt lat="50.029764259234071" lon="7.180576371029019">
        <time>2014-05-17T22:04:34Z</time>
      </trkpt>
      <trkpt lat="50.029369974508882" lon="7.18065993860364">
        <time>2014-05-17T22:04:34Z</time>
      </trkpt>
      <trkpt lat="50.028829425573349" lon="7.180764712393284">
        <time>2014-05-17T22:04:34Z</time>
      </trkpt>
      <trkpt lat="50.028656087815762" lon="7.180826989933848">
        <time>2014-05-17T22:04:34Z</time>
      </trkpt>
      <trkpt lat="50.028536729514599" lon="7.180949281901121">
        <time>2014-05-17T22:04:34Z</time>
      </trkpt>
      <trkpt lat="50.028361883014441" lon="7.181037040427327">
        <time>2014-05-17T22:04:34Z</time>
      </trkpt>
      <trkpt lat="50.028395159170032" lon="7.181418836116791">
        <time>2014-05-17T22:04:34Z</time>
      </trkpt>
      <trkpt lat="50.02801202237606" lon="7.181459488347173">
        <time>2014-05-17T22:04:34Z</time>
      </trkpt>
      <trkpt lat="50.027610193938017" lon="7.181490585207939">
        <time>2014-05-17T22:04:34Z</time>
      </trkpt>
      <trkpt lat="50.027539283037186" lon="7.181146172806621">
        <time>2014-05-17T22:04:34Z</time>
      </trkpt>
      <trkpt lat="50.026838472113013" lon="7.181278523057699">
        <time>2014-05-17T22:04:34Z</time>
      </trkpt>
      <trkpt lat="50.026191724464297" lon="7.181339375674725">
        <time>2014-05-17T22:04:34Z</time>
      </trkpt>
      <trkpt lat="50.025558723136783" lon="7.181453788653016">
        <time>2014-05-17T22:04:34Z</time>
      </trkpt>
      <trkpt lat="50.024585584178567" lon="7.181763164699078">
        <time>2014-05-17T22:04:34Z</time>
      </trkpt>
      <trkpt lat="50.023602219298482" lon="7.182002887129784">
        <time>2014-05-17T22:04:34Z</time>
      </trkpt>
      <trkpt lat="50.02251592464745" lon="7.182262223213911">
        <time>2014-05-17T22:04:34Z</time>
      </trkpt>
      <trkpt lat="50.021429629996419" lon="7.182521559298039">
        <time>2014-05-17T22:04:34Z</time>
      </trkpt>
      <trkpt lat="50.020655309781432" lon="7.182370601221919">
        <time>2014-05-17T22:04:34Z</time>
      </trkpt>
      <trkpt lat="50.019922312349081" lon="7.182133812457323">
        <time>2014-05-17T22:04:34Z</time>
      </trkpt>
      <trkpt lat="50.018211230635643" lon="7.181351613253355">
        <time>2014-05-17T22:04:34Z</time>
      </trkpt>
      <trkpt lat="50.016507776454091" lon="7.180681563913822">
        <time>2014-05-17T22:04:34Z</time>
      </trkpt>
      <trkpt lat="50.015869829803705" lon="7.179874470457435">
        <ele>99.200000000000003</ele>
        <time>2014-05-17T22:04:34Z</time>
      </trkpt>
      <trkpt lat="50.013246294111013" lon="7.176170591264963">
        <ele>124.3</ele>
        <time>2014-05-17T22:04:34Z</time>
      </trkpt>
      <trkpt lat="50.012068804353476" lon="7.167381495237351">
        <ele>124.8</ele>
        <time>2014-05-17T22:04:34Z</time>
      </trkpt>
      <trkpt lat="50.013428600504994" lon="7.160051604732871">
        <ele>129</ele>
        <time>2014-05-17T22:04:34Z</time>
      </trkpt>
      <trkpt lat="50.016828887164593" lon="7.15377314016223">
        <ele>116.59999999999999</ele>
        <time>2014-05-17T22:04:34Z</time>
      </trkpt>
      <trkpt lat="50.021194517612457" lon="7.151442803442478">
        <ele>100.8</ele>
        <time>2014-05-17T22:04:34Z</time>
      </trkpt>
      <trkpt lat="50.02451878041029" lon="7.150196079164743">
        <ele>100.5</ele>
        <time>2014-05-17T22:04:34Z</time>
      </trkpt>
      <trkpt lat="50.027843127027154" lon="7.14894943870604">
        <ele>99.5</ele>
        <time>2014-05-17T22:04:34Z</time>
      </trkpt>
      <trkpt lat="50.031870296224952" lon="7.146780034527183">
        <ele>107.2</ele>
        <time>2014-05-17T22:04:34Z</time>
      </trkpt>
      <trkpt lat="50.034836232662201" lon="7.142057083547115">
        <ele>128.69999999999999</ele>
        <time>2014-05-17T22:04:34Z</time>
      </trkpt>
      <trkpt lat="50.037937117740512" lon="7.132032075896859">
        <ele>129.5</ele>
        <time>2014-05-17T22:04:34Z</time>
      </trkpt>
      <trkpt lat="50.037530427798629" lon="7.122491961345077">
        <ele>123.40000000000001</ele>
        <time>2014-05-17T22:04:34Z</time>
      </trkpt>
      <trkpt lat="50.034170793369412" lon="7.118108225986362">
        <ele>108.09999999999999</ele>
        <time>2014-05-17T22:04:34Z</time>
      </trkpt>
      <trkpt lat="50.031128330156207" lon="7.118273433297873">
        <ele>105.09999999999999</ele>
        <time>2014-05-17T22:04:34Z</time>
      </trkpt>
      <trkpt lat="50.028107995167375" lon="7.118510222062469">
        <ele>104.5</ele>
        <time>2014-05-17T22:04:34Z</time>
      </trkpt>
      <trkpt lat="50.02508757635951" lon="7.118747094646096">
        <ele>98.700000000000003</ele>
        <time>2014-05-17T22:04:34Z</time>
      </trkpt>
      <trkpt lat="50.02420412376523" lon="7.119026798754931">
        <time>2014-05-17T22:04:34Z</time>
      </trkpt>
      <trkpt lat="50.024217367172241" lon="7.119574388489127">
        <time>2014-05-17T22:04:34Z</time>
      </trkpt>
      <trkpt lat="50.023327879607677" lon="7.119869599118829">
        <time>2014-05-17T22:04:34Z</time>
      </trkpt>
      <trkpt lat="50.022827982902527" lon="7.11806464008987">
        <time>2014-05-17T22:04:34Z</time>
      </trkpt>
      <trkpt lat="50.022481558844447" lon="7.116175107657909">
        <time>2014-05-17T22:04:34Z</time>
      </trkpt>
      <trkpt lat="50.023287227377295" lon="7.114801062270999">
        <time>2014-05-17T22:04:34Z</time>
      </trkpt>
      <trkpt lat="50.023910589516163" lon="7.113813841715455">
        <time>2014-05-17T22:04:34Z</time>
      </trkpt>
      <trkpt lat="50.024814996868372" lon="7.113234233111143">
        <time>2014-05-17T22:04:34Z</time>
      </trkpt>
      <trkpt lat="50.025460235774517" lon="7.112214909866452">
        <time>2014-05-17T22:04:34Z</time>
      </trkpt>
      <trkpt lat="50.02663747407496" lon="7.111490713432431">
        <time>2014-05-17T22:04:34Z</time>
      </trkpt>
      <trkpt lat="50.02779115922749" lon="7.110914038494229">
        <time>2014-05-17T22:04:34Z</time>
      </trkpt>
      <trkpt lat="50.02911239862442" lon="7.110239379107952">
        <time>2014-05-17T22:04:34Z</time>
      </trkpt>
      <trkpt lat="50.02716762945056" lon="7.10992363281548">
        <time>2014-05-17T22:04:34Z</time>
      </trkpt>
      <trkpt lat="50.029696617275476" lon="7.109250733628869">
        <time>2014-05-17T22:04:34Z</time>
      </trkpt>
      <trkpt lat="50.032490892335773" lon="7.108635334298015">
        <time>2014-05-17T22:04:34Z</time>
      </trkpt>
      <trkpt lat="50.032151089981198" lon="7.107791109010577">
        <time>2014-05-17T22:04:34Z</time>
      </trkpt>
      <trkpt lat="50.030919788405299" lon="7.105995789170265">
        <time>2014-05-17T22:04:34Z</time>
      </trkpt>
      <trkpt lat="50.031048618257046" lon="7.101900894194841">
        <time>2014-05-17T22:04:34Z</time>
      </trkpt>
      <trkpt lat="50.030985418707132" lon="7.098063491284847">
        <time>2014-05-17T22:04:34Z</time>
      </trkpt>
      <trkpt lat="50.029867859557271" lon="7.095618909224868">
        <time>2014-05-17T22:04:34Z</time>
      </trkpt>
      <trkpt lat="50.030205482617021" lon="7.091692909598351">
        <time>2014-05-17T22:04:34Z</time>
      </trkpt>
      <trkpt lat="50.029230918735266" lon="7.087482009083033">
        <time>2014-05-17T22:04:34Z</time>
      </trkpt>
      <trkpt lat="50.027815299108624" lon="7.083957670256496">
        <time>2014-05-17T22:04:34Z</time>
      </trkpt>
      <trkpt lat="50.025489823892713" lon="7.080690823495388">
        <time>2014-05-17T22:04:34Z</time>
      </trkpt>
      <trkpt lat="50.022998973727226" lon="7.079140590503812">
        <time>2014-05-17T22:04:34Z</time>
      </trkpt>
      <trkpt lat="50.02191879786551" lon="7.07857221364975">
        <time>2014-05-17T22:04:34Z</time>
      </trkpt>
      <trkpt lat="50.022943485528231" lon="7.077043438330293">
        <time>2014-05-17T22:04:34Z</time>
      </trkpt>
      <trkpt lat="50.023862393572927" lon="7.073747087270021">
        <time>2014-05-17T22:04:34Z</time>
      </trkpt>
      <trkpt lat="50.024363212287426" lon="7.071497971192002">
        <time>2014-05-17T22:04:34Z</time>
      </trkpt>
      <trkpt lat="50.024861684069037" lon="7.069686893373728">
        <time>2014-05-17T22:04:34Z</time>
      </trkpt>
      <trkpt lat="50.02551069483161" lon="7.068952973932028">
        <time>2014-05-17T22:04:34Z</time>
      </trkpt>
      <trkpt lat="50.025973124429584" lon="7.067427299916744">
        <time>2014-05-17T22:04:34Z</time>
      </trkpt>
      <trkpt lat="50.025101406499743" lon="7.067501312121749">
        <time>2014-05-17T22:04:34Z</time>
      </trkpt>
      <trkpt lat="50.024693123996258" lon="7.068890193477273">
        <time>2014-05-17T22:04:34Z</time>
      </trkpt>
      <trkpt lat="50.024020308628678" lon="7.071537198498845">
        <time>2014-05-17T22:04:34Z</time>
      </trkpt>
      <trkpt lat="50.023270379751921" lon="7.070607729256153">
        <time>2014-05-17T22:04:34Z</time>
      </trkpt>
      <trkpt lat="50.021792482584715" lon="7.07091542892158">
        <time>2014-05-17T22:04:34Z</time>
      </trkpt>
      <trkpt lat="50.020543495193124" lon="7.070189472287893">
        <time>2014-05-17T22:04:34Z</time>
      </trkpt>
      <trkpt lat="50.019353767856956" lon="7.069697789847851">
        <time>2014-05-17T22:04:34Z</time>
      </trkpt>
      <trkpt lat="50.017118230462074" lon="7.067821165546775">
        <time>2014-05-17T22:04:34Z</time>
      </trkpt>
      <trkpt lat="50.015682326629758" lon="7.063584197312594">
        <time>2014-05-17T22:04:34Z</time>
      </trkpt>
      <trkpt lat="50.01452243886888" lon="7.056267885491252">
        <time>2014-05-17T22:04:34Z</time>
      </trkpt>
      <trkpt lat="50.012315483763814" lon="7.048565503209829">
        <time>2014-05-17T22:04:34Z</time>
      </trkpt>
      <trkpt lat="50.00927503220737" lon="7.038223324343562">
        <time>2014-05-17T22:04:34Z</time>
      </trkpt>
      <trkpt lat="50.008775303140283" lon="7.034382568672299">
        <time>2014-05-17T22:04:34Z</time>
      </trkpt>
      <trkpt lat="50.008827187120914" lon="7.030026912689209">
        <time>2014-05-17T22:04:34Z</time>
      </trkpt>
      <trkpt lat="50.009161960333586" lon="7.027344787493348">
        <time>2014-05-17T22:04:34Z</time>
      </trkpt>
      <trkpt lat="50.00988288782537" lon="7.024405337870121">
        <time>2014-05-17T22:04:34Z</time>
      </trkpt>
      <trkpt lat="50.007835440337658" lon="7.023303033784032">
        <time>2014-05-17T22:04:34Z</time>
      </trkpt>
      <trkpt lat="50.006149588152766" lon="7.023524316027761">
        <time>2014-05-17T22:04:34Z</time>
      </trkpt>
      <trkpt lat="50.004794904962182" lon="7.026578010991216">
        <time>2014-05-17T22:04:34Z</time>
      </trkpt>
      <trkpt lat="50.002550566568971" lon="7.026134105399251">
        <time>2014-05-17T22:04:34Z</time>
      </trkpt>
      <trkpt lat="50.000885501503944" lon="7.023458601906896">
        <time>2014-05-17T22:04:34Z</time>
      </trkpt>
      <trkpt lat="49.997965414077044" lon="7.022370966151357">
        <time>2014-05-17T22:04:34Z</time>
      </trkpt>
      <trkpt lat="49.99588661827147" lon="7.024072911590338">
        <time>2014-05-17T22:04:34Z</time>
      </trkpt>
      <trkpt lat="49.995853258296847" lon="7.028329577296972">
        <time>2014-05-17T22:04:34Z</time>
      </trkpt>
      <trkpt lat="49.997174665331841" lon="7.032453641295433">
        <time>2014-05-17T22:04:34Z</time>
      </trkpt>
      <trkpt lat="49.994980031624436" lon="7.031404227018356">
        <time>2014-05-17T22:04:34Z</time>
      </trkpt>
      <trkpt lat="49.993240619078279" lon="7.030333271250129">
        <time>2014-05-17T22:04:34Z</time>
      </trkpt>
      <trkpt lat="49.993648901581764" lon="7.032862678170204">
        <time>2014-05-17T22:04:34Z</time>
      </trkpt>
      <trkpt lat="49.992377031594515" lon="7.031123265624046">
        <time>2014-05-17T22:04:34Z</time>
      </trkpt>
      <trkpt lat="49.990120707079768" lon="7.03016278333962">
        <time>2014-05-17T22:04:34Z</time>
      </trkpt>
      <trkpt lat="49.988692179322243" lon="7.028515487909317">
        <time>2014-05-17T22:04:34Z</time>
      </trkpt>
      <trkpt lat="49.989664312452078" lon="7.031867997720838">
        <time>2014-05-17T22:04:34Z</time>
      </trkpt>
      <trkpt lat="49.989256784319878" lon="7.036765376105905">
        <time>2014-05-17T22:04:34Z</time>
      </trkpt>
      <trkpt lat="49.988249866291881" lon="7.044558702036738">
        <time>2014-05-17T22:04:34Z</time>
      </trkpt>
      <trkpt lat="49.988243160769343" lon="7.053498001769185">
        <time>2014-05-17T22:04:34Z</time>
      </trkpt>
      <trkpt lat="49.989298777654767" lon="7.061342792585492">
        <time>2014-05-17T22:04:34Z</time>
      </trkpt>
      <trkpt lat="49.990368476137519" lon="7.068996727466583">
        <time>2014-05-17T22:04:34Z</time>
      </trkpt>
      <trkpt lat="49.991079512983561" lon="7.077272934839129">
        <time>2014-05-17T22:04:34Z</time>
      </trkpt>
      <trkpt lat="49.991287216544151" lon="7.083971919491887">
        <time>2014-05-17T22:04:34Z</time>
      </trkpt>
      <trkpt lat="49.991618720814586" lon="7.091655777767301">
        <time>2014-05-17T22:04:34Z</time>
      </trkpt>
      <trkpt lat="49.991060234606266" lon="7.096109334379435">
        <time>2014-05-17T22:04:39Z</time>
      </trkpt>
      <trkpt lat="49.990501664578915" lon="7.100562890991569">
        <time>2014-05-17T22:04:43Z</time>
      </trkpt>
      <trkpt lat="49.989364491775632" lon="7.105148294940591">
        <time>2014-05-17T22:04:59Z</time>
      </trkpt>
      <trkpt lat="49.987547378987074" lon="7.10528458468616">
        <time>2014-05-17T22:05:08Z</time>
      </trkpt>
      <trkpt lat="49.987218305468559" lon="7.106361240148544">
        <time>2014-05-17T22:05:11Z</time>
      </trkpt>
      <trkpt lat="49.986832989379764" lon="7.107800664380193">
        <time>2014-05-17T22:05:14Z</time>
      </trkpt>
      <trkpt lat="49.987081931903958" lon="7.110430235043168">
        <time>2014-05-17T22:05:17Z</time>
      </trkpt>
      <trkpt lat="49.985198937356472" lon="7.110489662736654">
        <time>2014-05-17T22:05:20Z</time>
      </trkpt>
      <trkpt lat="49.983243187889457" lon="7.111431369557977">
        <time>2014-05-17T22:05:23Z</time>
      </trkpt>
      <trkpt lat="49.980651000514627" lon="7.112481622025371">
        <time>2014-05-17T22:05:24Z</time>
      </trkpt>
      <trkpt lat="49.978743614628911" lon="7.113267341628671">
        <time>2014-05-17T22:05:25Z</time>
      </trkpt>
      <trkpt lat="49.976202892139554" lon="7.114454135298729">
        <time>2014-05-17T22:05:25Z</time>
      </trkpt>
      <trkpt lat="49.97377373278141" lon="7.114257328212261">
        <time>2014-05-17T22:05:25Z</time>
      </trkpt>
      <trkpt lat="49.972269264981151" lon="7.113858517259359">
        <time>2014-05-17T22:05:25Z</time>
      </trkpt>
      <trkpt lat="49.970561284571886" lon="7.113361805677414">
        <time>2014-05-17T22:05:26Z</time>
      </trkpt>
      <trkpt lat="49.969074167311192" lon="7.114238385111094">
        <time>2014-05-17T22:05:26Z</time>
      </trkpt>
      <trkpt lat="49.968868810683489" lon="7.118925293907523">
        <time>2014-05-17T22:05:26Z</time>
      </trkpt>
      <trkpt lat="49.969988381490111" lon="7.122753979638219">
        <time>2014-05-17T22:05:26Z</time>
      </trkpt>
      <trkpt lat="49.967491999268532" lon="7.12366433814168">
        <time>2014-05-17T22:05:26Z</time>
      </trkpt>
      <trkpt lat="49.964394131675363" lon="7.124334136024118">
        <time>2014-05-17T22:05:26Z</time>
      </trkpt>
      <trkpt lat="49.960801983252168" lon="7.124797739088535">
        <time>2014-05-17T22:05:26Z</time>
      </trkpt>
      <trkpt lat="49.95794266462326" lon="7.124278480187058">
        <time>2014-05-17T22:05:26Z</time>
      </trkpt>
      <trkpt lat="49.955166494473815" lon="7.123519163578749">
        <time>2014-05-17T22:05:26Z</time>
      </trkpt>
      <trkpt lat="49.952781423926353" lon="7.120060790330172">
        <time>2014-05-17T22:05:26Z</time>
      </trkpt>
      <trkpt lat="49.951591361314058" lon="7.120311995968223">
        <time>2014-05-17T22:05:26Z</time>
      </trkpt>
      <trkpt lat="49.951465800404549" lon="7.118592197075486">
        <time>2014-05-17T22:05:26Z</time>
      </trkpt>
      <trkpt lat="49.951340239495039" lon="7.116872482001782">
        <time>2014-05-17T22:05:26Z</time>
      </trkpt>
      <trkpt lat="49.950329633429646" lon="7.116630077362061">
        <time>2014-05-17T22:05:26Z</time>
      </trkpt>
      <trkpt lat="49.949427992105484" lon="7.116000931710005">
        <time>2014-05-17T22:05:26Z</time>
      </trkpt>
      <trkpt lat="49.948526518419385" lon="7.115371702238917">
        <time>2014-05-17T22:05:26Z</time>
      </trkpt>
      <trkpt lat="49.948061825707555" lon="7.115438003093004">
        <time>2014-05-17T22:05:26Z</time>
      </trkpt>
      <trkpt lat="49.947988819330931" lon="7.116747424006462">
        <time>2014-05-17T22:05:26Z</time>
      </trkpt>
      <trkpt lat="49.948180094361305" lon="7.116243420168757">
        <time>2014-05-17T22:05:26Z</time>
      </trkpt>
      <trkpt lat="49.94858686812222" lon="7.114459667354822">
        <time>2014-05-17T22:05:26Z</time>
      </trkpt>
      <trkpt lat="49.948993809521198" lon="7.11267608217895">
        <time>2014-05-17T22:05:26Z</time>
      </trkpt>
      <trkpt lat="49.949255576357245" lon="7.111332379281521">
        <time>2014-05-17T22:05:26Z</time>
      </trkpt>
      <trkpt lat="49.949614070355892" lon="7.111426340416074">
        <time>2014-05-17T22:05:26Z</time>
      </trkpt>
      <trkpt lat="49.950841935351491" lon="7.108401814475656">
        <time>2014-05-17T22:05:26Z</time>
      </trkpt>
      <trkpt lat="49.953474858775735" lon="7.104156883433461">
        <time>2014-05-17T22:05:26Z</time>
      </trkpt>
      <trkpt lat="49.957319386303425" lon="7.10041587240994">
        <time>2014-05-17T22:05:26Z</time>
      </trkpt>
      <trkpt lat="49.961722567677498" lon="7.099542729556561">
        <time>2014-05-17T22:05:26Z</time>
      </trkpt>
      <trkpt lat="49.965557791292667" lon="7.100684763863683">
        <time>2014-05-17T22:05:26Z</time>
      </trkpt>
      <trkpt lat="49.968411326408386" lon="7.102003321051598">
        <time>2014-05-17T22:05:26Z</time>
      </trkpt>
      <trkpt lat="49.970678295940161" lon="7.103246776387096">
        <time>2014-05-17T22:05:26Z</time>
      </trkpt>
      <trkpt lat="49.972239593043923" lon="7.102194931358099">
        <time>2014-05-17T22:05:26Z</time>
      </trkpt>
      <trkpt lat="49.974731365218759" lon="7.10350351408124">
        <time>2014-05-17T22:05:26Z</time>
      </trkpt>
      <trkpt lat="49.977039908990264" lon="7.104114973917604">
        <time>2014-05-17T22:05:26Z</time>
      </trkpt>
      <trkpt lat="49.977099085226655" lon="7.106507420539856">
        <time>2014-05-17T22:05:26Z</time>
      </trkpt>
      <trkpt lat="49.977194890379906" lon="7.108860304579139">
        <time>2014-05-17T22:05:26Z</time>
      </trkpt>
      <trkpt lat="49.978267941623926" lon="7.10835856385529">
        <time>2014-05-17T22:05:27Z</time>
      </trkpt>
      <trkpt lat="49.981465972959995" lon="7.106440616771579">
        <time>2014-05-17T22:05:27Z</time>
      </trkpt>
      <trkpt lat="49.98429536819458" lon="7.100442610681057">
        <time>2014-05-17T22:05:31Z</time>
      </trkpt>
      <trkpt lat="49.98385364189744" lon="7.096577631309629">
        <time>2014-05-17T22:05:48Z</time>
      </trkpt>
      <trkpt lat="49.982694340869784" lon="7.093699704855681">
        <time>2014-05-17T22:06:04Z</time>
      </trkpt>
      <trkpt lat="49.979848265647888" lon="7.089712684974074">
        <time>2014-05-17T22:06:31Z</time>
      </trkpt>
      <trkpt lat="49.977195393294096" lon="7.087957179173827">
        <time>2014-05-17T22:06:52Z</time>
      </trkpt>
      <trkpt lat="49.974142368882895" lon="7.085729688405991">
        <time>2014-05-17T22:07:16Z</time>
      </trkpt>
      <trkpt lat="49.971434259787202" lon="7.083201790228486">
        <time>2014-05-17T22:07:52Z</time>
      </trkpt>
      <trkpt lat="49.969244822859764" lon="7.079046461731195">
        <ele>102.90000000000001</ele>
        <time>2014-05-17T22:08:31Z</time>
      </trkpt>
      <trkpt lat="49.968393975868821" lon="7.073453469201922">
        <ele>105.59999999999999</ele>
        <time>2014-05-17T22:08:31Z</time>
      </trkpt>
      <trkpt lat="49.96987983584404" lon="7.065808167681098">
        <ele>106</ele>
        <time>2014-05-17T22:08:31Z</time>
      </trkpt>
      <trkpt lat="49.971782024949789" lon="7.059753919020295">
        <ele>109.8</ele>
        <time>2014-05-17T22:08:31Z</time>
      </trkpt>
      <trkpt lat="49.972966639325023" lon="7.054042909294367">
        <ele>105.59999999999999</ele>
        <time>2014-05-17T22:08:31Z</time>
      </trkpt>
      <trkpt lat="49.976619137451053" lon="7.045496301725507">
        <ele>110</ele>
        <time>2014-05-17T22:08:31Z</time>
      </trkpt>
      <trkpt lat="49.978542029857635" lon="7.0395493414253">
        <ele>105.5</ele>
        <time>2014-05-17T22:08:31Z</time>
      </trkpt>
      <trkpt lat="49.980423431843519" lon="7.03237920999527">
        <ele>107.7</ele>
        <time>2014-05-17T22:08:31Z</time>
      </trkpt>
      <trkpt lat="49.981705276295543" lon="7.02177694067359">
        <ele>106.59999999999999</ele>
        <time>2014-05-17T22:08:31Z</time>
      </trkpt>
      <trkpt lat="49.981932258233428" lon="7.014737734571099">
        <ele>114.40000000000001</ele>
        <time>2014-05-17T22:08:31Z</time>
      </trkpt>
      <trkpt lat="49.979951614513993" lon="7.010058872401714">
        <ele>108.59999999999999</ele>
        <time>2014-05-17T22:08:31Z</time>
      </trkpt>
      <trkpt lat="49.977665534242988" lon="7.005892898887396">
        <ele>108.59999999999999</ele>
        <time>2014-05-17T22:08:31Z</time>
      </trkpt>
      <trkpt lat="49.974468676373363" lon="7.00237057171762">
        <ele>113.90000000000001</ele>
        <time>2014-05-17T22:08:31Z</time>
      </trkpt>
      <trkpt lat="49.970816429704428" lon="6.999878296628594">
        <ele>113.40000000000001</ele>
        <time>2014-05-17T22:08:31Z</time>
      </trkpt>
      <trkpt lat="49.966667219996452" lon="6.998244328424335">
        <ele>107.90000000000001</ele>
        <time>2014-05-17T22:08:31Z</time>
      </trkpt>
      <trkpt lat="49.96050450950861" lon="6.997951380908489">
        <ele>115.09999999999999</ele>
        <time>2014-05-17T22:08:31Z</time>
      </trkpt>
      <trkpt lat="49.957188377156854" lon="6.999950716271997">
        <ele>106.5</ele>
        <time>2014-05-17T22:08:31Z</time>
      </trkpt>
      <trkpt lat="49.954672968015075" lon="7.00400990433991">
        <ele>106.7</ele>
        <time>2014-05-17T22:08:31Z</time>
      </trkpt>
      <trkpt lat="49.952710764482617" lon="7.007236098870635">
        <ele>110.2</ele>
        <time>2014-05-17T22:08:31Z</time>
      </trkpt>
      <trkpt lat="49.952565673738718" lon="7.006476195529103">
        <ele>117.5</ele>
        <time>2014-05-17T22:08:31Z</time>
      </trkpt>
      <trkpt lat="49.953221390023828" lon="7.00580220669508">
        <ele>116</ele>
        <time>2014-05-17T22:08:31Z</time>
      </trkpt>
      <trkpt lat="49.954525697976351" lon="7.007102239876986">
        <ele>105.40000000000001</ele>
        <time>2014-05-17T22:08:31Z</time>
      </trkpt>
      <trkpt lat="49.95538467541337" lon="7.008267240598798">
        <ele>113.5</ele>
        <time>2014-05-17T22:08:31Z</time>
      </trkpt>
      <trkpt lat="49.953866628929973" lon="7.012292062863708">
        <ele>112.09999999999999</ele>
        <time>2014-05-17T22:08:31Z</time>
      </trkpt>
      <trkpt lat="49.952348498627543" lon="7.016316968947649">
        <ele>109.90000000000001</ele>
        <time>2014-05-17T22:08:31Z</time>
      </trkpt>
      <trkpt lat="49.951727902516723" lon="7.022041641175747">
        <ele>109</ele>
        <time>2014-05-17T22:08:31Z</time>
      </trkpt>
      <trkpt lat="49.950030483305454" lon="7.027379991486669">
        <ele>114.8</ele>
        <time>2014-05-17T22:08:31Z</time>
      </trkpt>
      <trkpt lat="49.947538878768682" lon="7.035317067056894">
        <ele>113.7</ele>
        <time>2014-05-17T22:08:31Z</time>
      </trkpt>
      <trkpt lat="49.945954866707325" lon="7.040379904210568">
        <ele>113.5</ele>
        <time>2014-05-17T22:08:31Z</time>
      </trkpt>
      <trkpt lat="49.944453667849302" lon="7.044112365692854">
        <ele>113.7</ele>
        <time>2014-05-17T22:08:31Z</time>
      </trkpt>
      <trkpt lat="49.942336231470108" lon="7.050302401185036">
        <ele>112.7</ele>
        <time>2014-05-17T22:08:31Z</time>
      </trkpt>
      <trkpt lat="49.939859630540013" lon="7.054904485121369">
        <ele>110</ele>
        <time>2014-05-17T22:08:31Z</time>
      </trkpt>
      <trkpt lat="49.938013600185513" lon="7.057473789900541">
        <ele>109.09999999999999</ele>
        <time>2014-05-17T22:08:31Z</time>
      </trkpt>
      <trkpt lat="49.936167737469077" lon="7.060043010860682">
        <ele>110.40000000000001</ele>
        <time>2014-05-17T22:08:31Z</time>
      </trkpt>
      <trkpt lat="49.933983413502574" lon="7.062183162197471">
        <ele>110.8</ele>
        <time>2014-05-17T22:08:31Z</time>
      </trkpt>
      <trkpt lat="49.931799089536071" lon="7.06432331353426">
        <ele>111.59999999999999</ele>
        <time>2014-05-17T22:08:31Z</time>
      </trkpt>
      <trkpt lat="49.928328227251768" lon="7.067305594682694">
        <ele>109.3</ele>
        <time>2014-05-17T22:08:31Z</time>
      </trkpt>
      <trkpt lat="49.923116862773895" lon="7.069815890863538">
        <ele>111.3</ele>
        <time>2014-05-17T22:08:31Z</time>
      </trkpt>
      <trkpt lat="49.920877302065492" lon="7.071425132453442">
        <time>2014-05-17T22:08:31Z</time>
      </trkpt>
      <trkpt lat="49.919300833716989" lon="7.072948375716806">
        <ele>119</ele>
        <time>2014-05-17T22:08:31Z</time>
      </trkpt>
      <trkpt lat="49.918417632579803" lon="7.073562601581216">
        <time>2014-05-17T22:08:31Z</time>
      </trkpt>
      <trkpt lat="49.917016262188554" lon="7.074123099446297">
        <time>2014-05-17T22:08:31Z</time>
      </trkpt>
      <trkpt lat="49.916700683534145" lon="7.074548229575157">
        <time>2014-05-17T22:08:31Z</time>
      </trkpt>
      <trkpt lat="49.915763419121504" lon="7.074672868475318">
        <time>2014-05-17T22:08:31Z</time>
      </trkpt>
      <trkpt lat="49.914393229410052" lon="7.074750568717718">
        <ele>115</ele>
        <time>2014-05-17T22:08:31Z</time>
      </trkpt>
      <trkpt lat="49.912857497110963" lon="7.073489595204592">
        <time>2014-05-17T22:08:31Z</time>
      </trkpt>
      <trkpt lat="49.910170678049326" lon="7.069369638338685">
        <ele>121.2</ele>
        <time>2014-05-17T22:08:31Z</time>
      </trkpt>
      <trkpt lat="49.907818967476487" lon="7.063506161794066">
        <ele>125.09999999999999</ele>
        <time>2014-05-17T22:08:31Z</time>
      </trkpt>
      <trkpt lat="49.906258005648851" lon="7.056953525170684">
        <ele>122</ele>
        <time>2014-05-17T22:08:31Z</time>
      </trkpt>
      <trkpt lat="49.906327659264207" lon="7.051430689170957">
        <ele>123.90000000000001</ele>
        <time>2014-05-17T22:08:31Z</time>
      </trkpt>
      <trkpt lat="49.907232988625765" lon="7.048671366646886">
        <ele>118</ele>
        <time>2014-05-17T22:08:31Z</time>
      </trkpt>
      <trkpt lat="49.908138317987323" lon="7.045911960303783">
        <ele>120</ele>
        <time>2014-05-17T22:08:31Z</time>
      </trkpt>
      <trkpt lat="49.909948809072375" lon="7.040393399074674">
        <ele>117.2</ele>
        <time>2014-05-17T22:08:31Z</time>
      </trkpt>
      <trkpt lat="49.911980498582125" lon="7.034745924174786">
        <ele>112.7</ele>
        <time>2014-05-17T22:08:31Z</time>
      </trkpt>
      <trkpt lat="49.912409232929349" lon="7.028068481013179">
        <ele>116.40000000000001</ele>
        <time>2014-05-17T22:08:31Z</time>
      </trkpt>
      <trkpt lat="49.913125215098262" lon="7.022027475759387">
        <ele>120.2</ele>
        <time>2014-05-17T22:08:31Z</time>
      </trkpt>
      <trkpt lat="49.913841197267175" lon="7.018175236880779">
        <ele>115.90000000000001</ele>
        <time>2014-05-17T22:08:31Z</time>
      </trkpt>
      <trkpt lat="49.91376961581409" lon="7.011254383251071">
        <ele>115.2</ele>
        <time>2014-05-17T22:08:31Z</time>
      </trkpt>
      <trkpt lat="49.91328346543014" lon="7.007766840979457">
        <ele>113.3</ele>
        <time>2014-05-17T22:08:31Z</time>
      </trkpt>
      <trkpt lat="49.911979492753744" lon="7.001392487436533">
        <ele>113.59999999999999</ele>
        <time>2014-05-17T22:08:31Z</time>
      </trkpt>
      <trkpt lat="49.910940723493695" lon="6.994257224723697">
        <ele>116</ele>
        <time>2014-05-17T22:08:31Z</time>
      </trkpt>
      <trkpt lat="49.909238610416651" lon="6.987143168225884">
        <ele>116.09999999999999</ele>
        <time>2014-05-17T22:08:31Z</time>
      </trkpt>
      <trkpt lat="49.908241080120206" lon="6.982724983245134">
        <ele>117</ele>
        <time>2014-05-17T22:08:31Z</time>
      </trkpt>
      <trkpt lat="49.906276194378734" lon="6.97912210598588">
        <ele>126.09999999999999</ele>
        <time>2014-05-17T22:08:31Z</time>
      </trkpt>
      <trkpt lat="49.903882993385196" lon="6.975776720792055">
        <ele>141.09999999999999</ele>
        <time>2014-05-17T22:08:31Z</time>
      </trkpt>
      <trkpt lat="49.901130376383662" lon="6.971100876107812">
        <ele>140.19999999999999</ele>
        <time>2014-05-17T22:08:31Z</time>
      </trkpt>
      <trkpt lat="49.898771625012159" lon="6.966897184029222">
        <ele>134.30000000000001</ele>
        <time>2014-05-17T22:08:31Z</time>
      </trkpt>
      <trkpt lat="49.895887663587928" lon="6.963465884327889">
        <ele>137.59999999999999</ele>
        <time>2014-05-17T22:08:31Z</time>
      </trkpt>
      <trkpt lat="49.890423836186528" lon="6.95724718272686" />
      <trkpt lat="49.887909265235066" lon="6.953822588548064">
        <ele>125.7</ele>
        <time>2014-05-17T21:03:13Z</time>
      </trkpt>
      <trkpt lat="49.88802082836628" lon="6.951380772516131">
        <ele>117.40000000000001</ele>
        <time>2014-05-17T21:03:13Z</time>
      </trkpt>
      <trkpt lat="49.884703103452921" lon="6.950395898893476">
        <ele>115.8</ele>
        <time>2014-05-17T21:03:13Z</time>
      </trkpt>
      <trkpt lat="49.881053706631064" lon="6.950312163680792">
        <ele>118</ele>
        <time>2014-05-17T21:03:13Z</time>
      </trkpt>
      <trkpt lat="49.877116810530424" lon="6.950244605541229">
        <ele>114.8</ele>
        <time>2014-05-17T21:03:13Z</time>
      </trkpt>
      <trkpt lat="49.872543895617127" lon="6.94910416379571">
        <ele>121.09999999999999</ele>
        <time>2014-05-17T21:03:13Z</time>
      </trkpt>
      <trkpt lat="49.868551762774587" lon="6.948285587131977">
        <ele>120.3</ele>
        <time>2014-05-17T21:03:13Z</time>
      </trkpt>
      <trkpt lat="49.866334414109588" lon="6.946631669998169">
        <ele>116.2</ele>
        <time>2014-05-17T21:03:13Z</time>
      </trkpt>
      <trkpt lat="49.864116981625557" lon="6.944763259962201">
        <ele>126.7</ele>
        <time>2014-05-17T21:03:13Z</time>
      </trkpt>
      <trkpt lat="49.861612636595964" lon="6.938880672678351">
        <ele>131.80000000000001</ele>
        <time>2014-05-17T21:03:13Z</time>
      </trkpt>
      <trkpt lat="49.862075569108129" lon="6.931798132136464">
        <ele>139.80000000000001</ele>
        <time>2014-05-17T21:03:13Z</time>
      </trkpt>
      <trkpt lat="49.863672740757465" lon="6.927376175299287">
        <ele>138.90000000000001</ele>
        <time>2014-05-17T21:03:13Z</time>
      </trkpt>
      <trkpt lat="49.869390875101089" lon="6.924939136952162">
        <ele>124.09999999999999</ele>
        <time>2014-05-17T21:03:13Z</time>
      </trkpt>
      <trkpt lat="49.873716020956635" lon="6.926359869539738">
        <ele>125.7</ele>
        <time>2014-05-17T21:03:13Z</time>
      </trkpt>
      <trkpt lat="49.878234704956412" lon="6.926536140963435">
        <ele>132.90000000000001</ele>
        <time>2014-05-17T21:03:13Z</time>
      </trkpt>
      <trkpt lat="49.881147164851427" lon="6.921669775620103">
        <ele>133.5</ele>
        <time>2014-05-17T21:03:13Z</time>
      </trkpt>
      <trkpt lat="49.881123779341578" lon="6.912284307181835">
        <ele>134</ele>
        <time>2014-05-17T21:03:13Z</time>
      </trkpt>
      <trkpt lat="49.87855413928628" lon="6.905145440250635">
        <ele>130.30000000000001</ele>
        <time>2014-05-17T21:03:13Z</time>
      </trkpt>
      <trkpt lat="49.876066222786903" lon="6.902069533243775">
        <ele>128.90000000000001</ele>
        <time>2014-05-17T21:03:13Z</time>
      </trkpt>
      <trkpt lat="49.872029582038522" lon="6.900495579466224">
        <ele>125.90000000000001</ele>
        <time>2014-05-17T21:03:13Z</time>
      </trkpt>
      <trkpt lat="49.868832724168897" lon="6.899199737235904">
        <ele>119.90000000000001</ele>
        <time>2014-05-17T21:03:13Z</time>
      </trkpt>
      <trkpt lat="49.864398865029216" lon="6.898959511891007">
        <ele>116.8</ele>
        <time>2014-05-17T21:03:13Z</time>
      </trkpt>
      <trkpt lat="49.860324840992689" lon="6.898075472563505">
        <ele>124.09999999999999</ele>
        <time>2014-05-17T21:03:13Z</time>
      </trkpt>
      <trkpt lat="49.859515484422445" lon="6.89676227979362">
        <ele>119.8</ele>
        <time>2014-05-17T21:03:13Z</time>
      </trkpt>
      <trkpt lat="49.858567910268903" lon="6.891801366582513">
        <ele>132.19999999999999</ele>
        <time>2014-05-17T21:03:13Z</time>
      </trkpt>
      <trkpt lat="49.85404746606946" lon="6.890104115009308">
        <ele>125.2</ele>
        <time>2014-05-17T21:03:13Z</time>
      </trkpt>
      <trkpt lat="49.848475679755211" lon="6.889651408419013">
        <ele>126.8</ele>
        <time>2014-05-17T21:03:13Z</time>
      </trkpt>
      <trkpt lat="49.843352995812893" lon="6.891174400225282">
        <ele>126.09999999999999</ele>
        <time>2014-05-17T21:03:13Z</time>
      </trkpt>
      <trkpt lat="49.838506998494267" lon="6.893512699753046">
        <ele>120</ele>
        <time>2014-05-17T21:03:13Z</time>
      </trkpt>
      <trkpt lat="49.833937771618366" lon="6.896194405853748">
        <ele>122.40000000000001</ele>
        <time>2014-05-17T21:03:13Z</time>
      </trkpt>
      <trkpt lat="49.8292993940413" lon="6.899262266233563">
        <ele>125</ele>
        <time>2014-05-17T21:03:13Z</time>
      </trkpt>
      <trkpt lat="49.824805101379752" lon="6.900044968351722">
        <ele>128.09999999999999</ele>
        <time>2014-05-17T21:03:13Z</time>
      </trkpt>
      <trkpt lat="49.823311194777489" lon="6.900187041610479">
        <time>2014-05-17T21:03:13Z</time>
      </trkpt>
      <trkpt lat="49.821983501315117" lon="6.900071538984776">
        <time>2014-05-17T21:03:13Z</time>
      </trkpt>
      <trkpt lat="49.821857772767544" lon="6.90311442129314">
        <time>2014-05-17T21:03:13Z</time>
      </trkpt>
      <trkpt lat="49.821925917640328" lon="6.905899895355105">
        <time>2014-05-17T21:03:13Z</time>
      </trkpt>
      <trkpt lat="49.820880275219679" lon="6.906255623325706">
        <time>2014-05-17T21:03:13Z</time>
      </trkpt>
      <trkpt lat="49.819834716618061" lon="6.906611267477274">
        <time>2014-05-17T21:03:13Z</time>
      </trkpt>
      <trkpt lat="49.818507190793753" lon="6.906354613602161">
        <time>2014-05-17T21:03:13Z</time>
      </trkpt>
      <trkpt lat="49.817179664969444" lon="6.906097959727049">
        <time>2014-05-17T21:03:13Z</time>
      </trkpt>
      <trkpt lat="49.815336400642991" lon="6.904746880754829">
        <time>2014-05-17T21:03:13Z</time>
      </trkpt>
      <trkpt lat="49.814084731042385" lon="6.90385127440095">
        <time>2014-05-17T21:03:13Z</time>
      </trkpt>
      <trkpt lat="49.813386769965291" lon="6.90246214158833">
        <time>2014-05-17T21:03:13Z</time>
      </trkpt>
      <trkpt lat="49.812626531347632" lon="6.900922721251845">
        <time>2014-05-17T21:03:13Z</time>
      </trkpt>
      <trkpt lat="49.813001034781337" lon="6.903339475393295">
        <time>2014-05-17T21:03:13Z</time>
      </trkpt>
      <trkpt lat="49.81354309245944" lon="6.905655730515719">
        <time>2014-05-17T21:03:13Z</time>
      </trkpt>
      <trkpt lat="49.813920613378286" lon="6.907276371493936">
        <time>2014-05-17T21:03:13Z</time>
      </trkpt>
      <trkpt lat="49.812690066173673" lon="6.897462923079729">
        <time>2014-05-17T21:03:13Z</time>
      </trkpt>
      <trkpt lat="49.812824595719576" lon="6.892107222229242">
        <time>2014-05-17T21:03:13Z</time>
      </trkpt>
      <trkpt lat="49.814322860911489" lon="6.887352336198092">
        <time>2014-05-17T21:03:13Z</time>
      </trkpt>
      <trkpt lat="49.816144583746791" lon="6.884995931759477">
        <time>2014-05-17T21:03:13Z</time>
      </trkpt>
      <trkpt lat="49.817263232544065" lon="6.883957162499428">
        <time>2014-05-17T21:03:13Z</time>
      </trkpt>
      <trkpt lat="49.818443991243839" lon="6.886297976598144">
        <time>2014-05-17T21:03:13Z</time>
      </trkpt>
      <trkpt lat="49.820591015741229" lon="6.884730225428939">
        <time>2014-05-17T21:03:13Z</time>
      </trkpt>
      <trkpt lat="49.822821104899049" lon="6.883312594145536">
        <time>2014-05-17T21:03:13Z</time>
      </trkpt>
      <trkpt lat="49.825200140476227" lon="6.882275836542249">
        <time>2014-05-17T21:03:13Z</time>
      </trkpt>
      <trkpt lat="49.827592922374606" lon="6.881668232381344">
        <time>2014-05-17T21:03:13Z</time>
      </trkpt>
      <trkpt lat="49.829682027921081" lon="6.880983598530293">
        <time>2014-05-17T21:03:13Z</time>
      </trkpt>
      <trkpt lat="49.831466702744365" lon="6.880277507007122">
        <time>2014-05-17T21:03:13Z</time>
      </trkpt>
      <trkpt lat="49.834043718874454" lon="6.879378296434879">
        <time>2014-05-17T21:03:13Z</time>
      </trkpt>
      <trkpt lat="49.836316220462322" lon="6.877985475584865">
        <time>2014-05-17T21:03:13Z</time>
      </trkpt>
      <trkpt lat="49.838808830827475" lon="6.876160064712167">
        <time>2014-05-17T21:03:13Z</time>
      </trkpt>
      <trkpt lat="49.840664668008685" lon="6.874087974429131">
        <time>2014-05-17T21:03:13Z</time>
      </trkpt>
      <trkpt lat="49.842328391969204" lon="6.870072623714805">
        <time>2014-05-17T21:03:13Z</time>
      </trkpt>
      <trkpt lat="49.842713959515095" lon="6.865693917497993">
        <time>2014-05-17T21:03:13Z</time>
      </trkpt>
      <trkpt lat="49.842095877975225" lon="6.861519981175661">
        <time>2014-05-17T21:03:13Z</time>
      </trkpt>
      <trkpt lat="49.840993573889136" lon="6.858526300638914">
        <time>2014-05-17T21:03:13Z</time>
      </trkpt>
      <trkpt lat="49.839245527982712" lon="6.853086110204458">
        <time>2014-05-17T21:03:13Z</time>
      </trkpt>
      <trkpt lat="49.838452264666557" lon="6.8482038192451">
        <time>2014-05-17T21:03:13Z</time>
      </trkpt>
      <trkpt lat="49.837326910346746" lon="6.844630362465978">
        <time>2014-05-17T21:03:13Z</time>
      </trkpt>
      <trkpt lat="49.835647931322455" lon="6.84068139642477">
        <time>2014-05-17T21:03:13Z</time>
      </trkpt>
      <trkpt lat="49.835355067625642" lon="6.837762901559472">
        <time>2014-05-17T21:03:13Z</time>
      </trkpt>
      <trkpt lat="49.836395513266325" lon="6.836475189775229">
        <time>2014-05-17T21:03:13Z</time>
      </trkpt>
      <trkpt lat="49.837054079398513" lon="6.835332484915853">
        <time>2014-05-17T21:03:13Z</time>
      </trkpt>
      <trkpt lat="49.836788289248943" lon="6.834450038149953">
        <time>2014-05-17T21:03:13Z</time>
      </trkpt>
      <trkpt lat="49.836550075560808" lon="6.834527822211385">
        <time>2014-05-17T21:03:23Z</time>
      </trkpt>
      <trkpt lat="49.835672406479716" lon="6.833140784874558">
        <time>2014-05-17T21:04:09Z</time>
      </trkpt>
      <trkpt lat="49.834607820957899" lon="6.832333188503981">
        <ele>130.40000000000001</ele>
        <time>2014-05-17T21:04:53Z</time>
      </trkpt>
      <trkpt lat="49.831667868420482" lon="6.832172004505992">
        <ele>120.90000000000001</ele>
        <time>2014-05-17T21:05:43Z</time>
      </trkpt>
      <trkpt lat="49.828661615028977" lon="6.834430173039436">
        <ele>121.40000000000001</ele>
        <time>2014-05-17T21:06:08Z</time>
      </trkpt>
      <trkpt lat="49.826341839507222" lon="6.835001483559609">
        <ele>124.09999999999999</ele>
        <time>2014-05-17T21:06:21Z</time>
      </trkpt>
      <trkpt lat="49.824132705107331" lon="6.83505772612989">
        <ele>127.59999999999999</ele>
        <time>2014-05-17T21:06:33Z</time>
      </trkpt>
      <trkpt lat="49.819563813507557" lon="6.837355038151145">
        <ele>133.40000000000001</ele>
        <time>2014-05-17T21:07:03Z</time>
      </trkpt>
      <trkpt lat="49.815604202449322" lon="6.839082967489958">
        <ele>140.5</ele>
        <time>2014-05-17T21:07:18Z</time>
      </trkpt>
      <trkpt lat="49.811644507572055" lon="6.840810980647802">
        <ele>141.19999999999999</ele>
        <time>2014-05-17T21:07:33Z</time>
      </trkpt>
      <trkpt lat="49.806583262979984" lon="6.844745026901364">
        <ele>133.5</ele>
        <time>2014-05-17T21:08:57Z</time>
      </trkpt>
      <trkpt lat="49.802723228931427" lon="6.846905127167702">
        <ele>135.19999999999999</ele>
        <time>2014-05-17T21:09:39Z</time>
      </trkpt>
      <trkpt lat="49.798973919823766" lon="6.849666126072407">
        <ele>129.69999999999999</ele>
        <time>2014-05-17T21:10:20Z</time>
      </trkpt>
      <trkpt lat="49.792952109128237" lon="6.848634397611022">
        <ele>130.19999999999999</ele>
        <time>2014-05-17T21:11:02Z</time>
      </trkpt>
      <trkpt lat="49.791011279448867" lon="6.847560591995716">
        <ele>125.40000000000001</ele>
        <time>2014-05-17T21:11:23Z</time>
      </trkpt>
      <trkpt lat="49.790538791567087" lon="6.84532823972404">
        <ele>123.3</ele>
        <time>2014-05-17T21:11:43Z</time>
      </trkpt>
      <trkpt lat="49.792940793558955" lon="6.842723563313484">
        <ele>128.5</ele>
        <time>2014-05-17T21:11:57Z</time>
      </trkpt>
      <trkpt lat="49.796939715743065" lon="6.840112432837486">
        <ele>130.19999999999999</ele>
        <time>2014-05-17T21:12:04Z</time>
      </trkpt>
      <trkpt lat="49.798814496025443" lon="6.834300672635436">
        <ele>125.2</ele>
        <time>2014-05-17T21:12:08Z</time>
      </trkpt>
      <trkpt lat="49.797282032668591" lon="6.830162694677711">
        <ele>120.40000000000001</ele>
        <time>2014-05-17T21:12:11Z</time>
      </trkpt>
      <trkpt lat="49.794578282162547" lon="6.825247881934047">
        <ele>123.90000000000001</ele>
        <time>2014-05-17T21:12:32Z</time>
      </trkpt>
      <trkpt lat="49.7940160240978" lon="6.823305459693074">
        <ele>124.40000000000001</ele>
        <time>2014-05-17T21:12:43Z</time>
      </trkpt>
      <trkpt lat="49.794496726244688" lon="6.817141575738788">
        <ele>127.8</ele>
        <time>2014-05-17T21:12:48Z</time>
      </trkpt>
      <trkpt lat="49.795808410272002" lon="6.811428219079971">
        <ele>129.19999999999999</ele>
        <time>2014-05-17T21:12:53Z</time>
      </trkpt>
      <trkpt lat="49.797831466421485" lon="6.806077798828483">
        <ele>133.09999999999999</ele>
        <time>2014-05-17T21:14:20Z</time>
      </trkpt>
      <trkpt lat="49.799854522570968" lon="6.800727378576994">
        <ele>125.2</ele>
        <time>2014-05-17T21:15:46Z</time>
      </trkpt>
      <trkpt lat="49.802514687180519" lon="6.794218327850103">
        <ele>129.19999999999999</ele>
        <time>2014-05-17T21:17:13Z</time>
      </trkpt>
      <trkpt lat="49.804787104949355" lon="6.78723712451756">
        <ele>131.09999999999999</ele>
        <time>2014-05-17T21:18:39Z</time>
      </trkpt>
      <trkpt lat="49.806469520553946" lon="6.781533574685454">
        <ele>128.90000000000001</ele>
        <time>2014-05-17T21:19:23Z</time>
      </trkpt>
      <trkpt lat="49.808179680258036" lon="6.778190620243549">
        <ele>128</ele>
        <time>2014-05-17T21:20:06Z</time>
      </trkpt>
      <trkpt lat="49.812188493087888" lon="6.772851934656501">
        <ele>133.90000000000001</ele>
        <time>2014-05-17T21:20:49Z</time>
      </trkpt>
      <trkpt lat="49.814705075696111" lon="6.767929578199983">
        <ele>148.09999999999999</ele>
        <time>2014-05-17T21:21:11Z</time>
      </trkpt>
      <trkpt lat="49.815864879637957" lon="6.760432301089168">
        <ele>128.09999999999999</ele>
        <time>2014-05-17T21:21:32Z</time>
      </trkpt>
      <trkpt lat="49.816202921792865" lon="6.755501311272383">
        <ele>125.7</ele>
        <time>2014-05-17T21:22:16Z</time>
      </trkpt>
      <trkpt lat="49.815679639577866" lon="6.7526925355196">
        <ele>127.8</ele>
        <time>2014-05-17T21:22:37Z</time>
      </trkpt>
      <trkpt lat="49.815922630950809" lon="6.752279978245497">
        <time>2014-05-17T21:22:41Z</time>
      </trkpt>
      <trkpt lat="49.816191187128425" lon="6.752274865284562">
        <time>2014-05-17T21:22:43Z</time>
      </trkpt>
      <trkpt lat="49.816393023356795" lon="6.752266902476549">
        <time>2014-05-17T21:22:44Z</time>
      </trkpt>
      <trkpt lat="49.816808179020882" lon="6.752287605777383">
        <time>2014-05-17T21:22:44Z</time>
      </trkpt>
      <trkpt lat="49.817223334684968" lon="6.752308225259185">
        <time>2014-05-17T21:22:44Z</time>
      </trkpt>
      <trkpt lat="49.817678304389119" lon="6.752374358475208">
        <time>2014-05-17T21:22:44Z</time>
      </trkpt>
      <trkpt lat="49.818064123392105" lon="6.752472762018442">
        <time>2014-05-17T21:22:45Z</time>
      </trkpt>
      <trkpt lat="49.818484475836158" lon="6.752541661262512">
        <time>2014-05-17T21:22:45Z</time>
      </trkpt>
      <trkpt lat="49.818904912099242" lon="6.752610728144646">
        <time>2014-05-17T21:22:45Z</time>
      </trkpt>
      <trkpt lat="49.819332221522927" lon="6.752679627388716">
        <time>2014-05-17T21:22:45Z</time>
      </trkpt>
      <trkpt lat="49.819608069956303" lon="6.75268717110157">
        <time>2014-05-17T21:22:45Z</time>
      </trkpt>
      <trkpt lat="49.819745700806379" lon="6.752748526632786">
        <time>2014-05-17T21:22:46Z</time>
      </trkpt>
      <trkpt lat="49.815694810822606" lon="6.751223690807819">
        <ele>126.8</ele>
        <time>2014-05-17T21:22:48Z</time>
      </trkpt>
      <trkpt lat="49.815892539918423" lon="6.748099168762565">
        <time>2014-05-17T21:22:51Z</time>
      </trkpt>
      <trkpt lat="49.816373996436596" lon="6.744974814355373">
        <time>2014-05-17T21:22:54Z</time>
      </trkpt>
      <trkpt lat="49.818880604580045" lon="6.741386521607637">
        <ele>130.69999999999999</ele>
        <time>2014-05-17T21:22:59Z</time>
      </trkpt>
      <trkpt lat="49.822136303409934" lon="6.739167831838131">
        <ele>134.59999999999999</ele>
        <time>2014-05-17T21:23:21Z</time>
      </trkpt>
      <trkpt lat="49.824027176946402" lon="6.737028518691659">
        <ele>137.30000000000001</ele>
        <time>2014-05-17T21:23:31Z</time>
      </trkpt>
      <trkpt lat="49.824699908494949" lon="6.734932037070394">
        <ele>134.80000000000001</ele>
        <time>2014-05-17T21:23:42Z</time>
      </trkpt>
      <trkpt lat="49.825110118836164" lon="6.72945823520422">
        <ele>144.90000000000001</ele>
        <time>2014-05-17T21:23:48Z</time>
      </trkpt>
      <trkpt lat="49.823831459507346" lon="6.723812688142061">
        <ele>143.19999999999999</ele>
        <time>2014-05-17T21:23:53Z</time>
      </trkpt>
      <trkpt lat="49.822788164019585" lon="6.718167224898934">
        <ele>141.80000000000001</ele>
        <time>2014-05-17T21:23:58Z</time>
      </trkpt>
      <trkpt lat="49.822243340313435" lon="6.712264185771346">
        <ele>139.19999999999999</ele>
        <time>2014-05-17T21:24:04Z</time>
      </trkpt>
      <trkpt lat="49.820867786183953" lon="6.708034928888083">
        <ele>133</ele>
        <time>2014-05-17T21:24:09Z</time>
      </trkpt>
      <trkpt lat="49.819215629249811" lon="6.705700820311904">
        <ele>130.69999999999999</ele>
        <time>2014-05-17T21:24:11Z</time>
      </trkpt>
      <trkpt lat="49.816871210932732" lon="6.704182103276253">
        <ele>128</ele>
        <time>2014-05-17T21:24:12Z</time>
      </trkpt>
      <trkpt lat="49.81382061727345" lon="6.70075373724103">
        <ele>126</ele>
        <time>2014-05-17T21:24:13Z</time>
      </trkpt>
      <trkpt lat="49.810825511813164" lon="6.696981964632869">
        <ele>125.90000000000001</ele>
        <time>2014-05-17T21:24:15Z</time>
      </trkpt>
      <trkpt lat="49.808221338316798" lon="6.692882459610701">
        <ele>127.5</ele>
        <time>2014-05-17T21:24:17Z</time>
      </trkpt>
      <trkpt lat="49.804980223998427" lon="6.689898921176791">
        <ele>125.5</ele>
        <time>2014-05-17T21:24:20Z</time>
      </trkpt>
      <trkpt lat="49.799648160114884" lon="6.689555011689663">
        <ele>129.69999999999999</ele>
        <time>2014-05-17T21:24:21Z</time>
      </trkpt>
      <trkpt lat="49.794371584430337" lon="6.689339932054281">
        <ele>131.30000000000001</ele>
        <time>2014-05-17T21:24:23Z</time>
      </trkpt>
      <trkpt lat="49.790355311706662" lon="6.688931901007891">
        <ele>131.59999999999999</ele>
        <time>2014-05-17T21:24:23Z</time>
      </trkpt>
      <trkpt lat="49.787557516247034" lon="6.68711856007576">
        <ele>129</ele>
        <time>2014-05-17T21:24:24Z</time>
      </trkpt>
      <trkpt lat="49.78601323440671" lon="6.685589700937271">
        <ele>131.30000000000001</ele>
        <time>2014-05-17T21:24:24Z</time>
      </trkpt>
      <trkpt lat="49.784136358648539" lon="6.684919064864516">
        <ele>128.69999999999999</ele>
        <time>2014-05-17T21:24:24Z</time>
      </trkpt>
      <trkpt lat="49.781906940042973" lon="6.682569282129407">
        <ele>133.80000000000001</ele>
        <time>2014-05-17T21:24:24Z</time>
      </trkpt>
      <trkpt lat="49.780113296583295" lon="6.676630787551403">
        <ele>132.40000000000001</ele>
        <time>2014-05-17T21:24:25Z</time>
      </trkpt>
      <trkpt lat="49.778319569304585" lon="6.670692376792431">
        <ele>129.09999999999999</ele>
        <time>2014-05-17T21:24:25Z</time>
      </trkpt>
      <trkpt lat="49.77510217577219" lon="6.659604040905833">
        <ele>130.30000000000001</ele>
        <time>2014-05-17T21:24:25Z</time>
      </trkpt>
      <trkpt lat="49.774283263832331" lon="6.654124287888408">
        <ele>140.5</ele>
        <time>2014-05-17T21:24:25Z</time>
      </trkpt>
      <trkpt lat="49.77302111685276" lon="6.647957805544138">
        <ele>145.19999999999999</ele>
        <time>2014-05-17T21:24:25Z</time>
      </trkpt>
      <trkpt lat="49.771467782557011" lon="6.642477968707681">
        <ele>145.80000000000001</ele>
        <time>2014-05-17T21:24:25Z</time>
      </trkpt>
      <trkpt lat="49.769498789682984" lon="6.637727776542306">
        <ele>141.5</ele>
        <time>2014-05-17T21:24:25Z</time>
      </trkpt>
      <trkpt lat="49.766892269253731" lon="6.633277991786599">
        <ele>136.09999999999999</ele>
        <time>2014-05-17T21:24:25Z</time>
      </trkpt>
      <trkpt lat="49.764230428263545" lon="6.629944005981088">
        <ele>136</ele>
        <time>2014-05-17T21:24:25Z</time>
      </trkpt>
      <trkpt lat="49.76393848657608" lon="6.629343777894974">
        <ele>138.80000000000001</ele>
        <time>2014-05-17T21:25:55Z</time>
      </trkpt>
      <trkpt lat="49.764435533434153" lon="6.62945693358779">
        <ele>146.19999999999999</ele>
        <time>2014-05-17T21:26:40Z</time>
      </trkpt>
      <trkpt lat="49.764964012429118" lon="6.629886422306299">
        <ele>147.69999999999999</ele>
        <time>2014-05-17T21:27:25Z</time>
      </trkpt>
      <trkpt lat="49.764370322227478" lon="6.63150480017066">
        <ele>129.80000000000001</ele>
        <time>2014-05-17T21:27:59Z</time>
      </trkpt>
      <trkpt lat="49.763964805752039" lon="6.632630322128534">
        <ele>127.09999999999999</ele>
        <time>2014-05-17T21:28:05Z</time>
      </trkpt>
      <trkpt lat="49.7635592892766" lon="6.633755676448345">
        <ele>130.80000000000001</ele>
        <time>2014-05-17T21:28:10Z</time>
      </trkpt>
      <trkpt lat="49.763111025094986" lon="6.633521569892764">
        <ele>131.80000000000001</ele>
        <time>2014-05-17T21:28:46Z</time>
      </trkpt>
      <trkpt lat="49.762666197493672" lon="6.633263407275081">
        <ele>131.80000000000001</ele>
        <time>2014-05-17T21:29:22Z</time>
      </trkpt>
      <trkpt lat="49.762394120916724" lon="6.633049920201302">
        <ele>131.19999999999999</ele>
        <time>2014-05-17T21:29:23Z</time>
      </trkpt>
      <trkpt lat="49.76218868046999" lon="6.632967190816999">
        <ele>130.90000000000001</ele>
        <time>2014-05-17T21:29:24Z</time>
      </trkpt>
      <trkpt lat="49.762121960520744" lon="6.633002562448382">
        <ele>131.09999999999999</ele>
        <time>2014-05-17T21:29:24Z</time>
      </trkpt>
      <trkpt lat="49.761971170082688" lon="6.633128458634019">
        <ele>131.69999999999999</ele>
        <time>2014-05-17T21:29:24Z</time>
      </trkpt>
      <trkpt lat="49.761834209784865" lon="6.633501201868057">
        <ele>133</ele>
        <time>2014-05-17T21:29:25Z</time>
      </trkpt>
      <trkpt lat="49.761725077405572" lon="6.634063124656677">
        <ele>134.40000000000001</ele>
        <time>2014-05-17T21:29:25Z</time>
      </trkpt>
      <trkpt lat="49.761599432677031" lon="6.634419104084373">
        <ele>134.09999999999999</ele>
        <time>2014-05-17T21:29:25Z</time>
      </trkpt>
      <trkpt lat="49.761477308347821" lon="6.634640973061323">
        <ele>133.69999999999999</ele>
        <time>2014-05-17T21:29:25Z</time>
      </trkpt>
      <trkpt lat="49.761324003338814" lon="6.63498773239553">
        <ele>133.5</ele>
        <time>2014-05-17T21:29:25Z</time>
      </trkpt>
      <trkpt lat="49.761170614510775" lon="6.635334324091673">
        <ele>133.5</ele>
        <time>2014-05-17T21:29:25Z</time>
      </trkpt>
      <trkpt lat="49.76096567697823" lon="6.635547894984484">
        <ele>133.5</ele>
        <time>2014-05-17T21:29:25Z</time>
      </trkpt>
      <trkpt lat="49.760773228481412" lon="6.635780660435557">
        <ele>133.5</ele>
        <time>2014-05-17T21:29:25Z</time>
      </trkpt>
      <trkpt lat="49.760656803846359" lon="6.63611551746726">
        <ele>133.19999999999999</ele>
        <time>2014-05-17T21:29:25Z</time>
      </trkpt>
      <trkpt lat="49.760517999529839" lon="6.636656820774078">
        <ele>132.90000000000001</ele>
        <time>2014-05-17T21:29:25Z</time>
      </trkpt>
      <trkpt lat="49.760306440293789" lon="6.637160489335656">
        <ele>132.80000000000001</ele>
        <time>2014-05-17T21:29:25Z</time>
      </trkpt>
      <trkpt lat="49.760139975696802" lon="6.637504901736975">
        <ele>132.5</ele>
        <time>2014-05-17T21:29:25Z</time>
      </trkpt>
      <trkpt lat="49.759973511099815" lon="6.637849397957325">
        <ele>132.5</ele>
        <time>2014-05-17T21:29:25Z</time>
      </trkpt>
      <trkpt lat="49.75980713032186" lon="6.638193810358644">
        <ele>132.5</ele>
        <time>2014-05-17T21:29:25Z</time>
      </trkpt>
      <trkpt lat="49.759640581905842" lon="6.638538222759962">
        <ele>132.90000000000001</ele>
        <time>2014-05-17T21:29:25Z</time>
      </trkpt>
      <trkpt lat="49.759475123137236" lon="6.638889508321881">
        <ele>133.59999999999999</ele>
        <time>2014-05-17T21:29:25Z</time>
      </trkpt>
      <trkpt lat="49.759339084848762" lon="6.639152364805341">
        <ele>134.30000000000001</ele>
        <time>2014-05-17T21:29:25Z</time>
      </trkpt>
      <trkpt lat="49.759257612749934" lon="6.639201901853085">
        <ele>134.5</ele>
        <time>2014-05-17T21:29:25Z</time>
      </trkpt>
      <trkpt lat="49.759166585281491" lon="6.639143563807011">
        <ele>134.40000000000001</ele>
        <time>2014-05-17T21:29:25Z</time>
      </trkpt>
      <trkpt lat="49.759075725451112" lon="6.639074413105846">
        <ele>134.69999999999999</ele>
        <time>2014-05-17T21:29:25Z</time>
      </trkpt>
      <trkpt lat="49.758838014677167" lon="6.638881796970964">
        <ele>135.30000000000001</ele>
        <time>2014-05-17T21:29:26Z</time>
      </trkpt>
      <trkpt lat="49.758687308058143" lon="6.638785321265459">
        <ele>135.59999999999999</ele>
        <time>2014-05-17T21:29:26Z</time>
      </trkpt>
      <trkpt lat="49.758615391328931" lon="6.63876922801137">
        <ele>135.90000000000001</ele>
        <time>2014-05-17T21:29:26Z</time>
      </trkpt>
      <trkpt lat="49.758579935878515" lon="6.638828236609697">
        <ele>136.19999999999999</ele>
        <time>2014-05-17T21:29:26Z</time>
      </trkpt>
      <trkpt lat="49.758534003049135" lon="6.638983301818371">
        <ele>136.90000000000001</ele>
        <time>2014-05-17T21:29:26Z</time>
      </trkpt>
      <trkpt lat="49.758488237857819" lon="6.639138534665108">
        <ele>137.69999999999999</ele>
        <time>2014-05-17T21:29:26Z</time>
      </trkpt>
      <trkpt lat="49.75839838385582" lon="6.639364929869771">
        <ele>138.5</ele>
        <time>2014-05-17T21:29:27Z</time>
      </trkpt>
    </trkseg>
  </trk>

</gpx>